Time,TemperatureF,DewpointF,PressureIn,WindDirection,WindDirectionDegrees,WindSpeedMPH,WindSpeedGustMPH,Humidity,HourlyPrecipIn,Conditions,Clouds,dailyrainin,SoftwareType,DateUTC
2013-05-12 00:00:00,71.0,69.5,30.01,South,186,1.0,4.0,95,0.00,,BKN035,0.83,VWS V14.01,2013-05-12 04:00:00,
2013-05-12 00:01:00,71.1,69.6,30.01,South,186,0.0,0.0,95,0.00,,BKN035,0.00,VWS V14.01,2013-05-12 04:01:00,
2013-05-12 00:06:00,71.1,69.6,30.00,South,186,0.0,0.0,95,0.00,,BKN035,0.00,VWS V14.01,2013-05-12 04:06:00,
2013-05-12 00:07:00,71.1,69.6,30.00,South,186,0.0,0.0,95,0.00,,BKN035,0.00,VWS V14.01,2013-05-12 04:07:00,
2013-05-12 00:11:00,71.1,69.6,30.00,South,186,0.0,0.0,95,0.00,,BKN035,0.00,VWS V14.01,2013-05-12 04:11:00,
2013-05-12 00:16:00,71.1,69.6,30.00,South,186,0.0,0.0,95,0.00,,BKN035,0.00,VWS V14.01,2013-05-12 04:16:00,
2013-05-12 00:17:00,71.1,69.6,30.00,South,186,0.0,0.0,95,0.00,,BKN035,0.00,VWS V14.01,2013-05-12 04:17:00,
2013-05-12 00:21:00,71.1,69.6,30.00,South,186,2.0,4.0,95,0.00,,BKN035,0.00,VWS V14.01,2013-05-12 04:21:00,
2013-05-12 00:22:00,71.1,69.6,30.00,South,186,0.0,4.0,95,0.00,,BKN035,0.00,VWS V14.01,2013-05-12 04:22:00,
2013-05-12 00:26:00,71.2,69.7,29.99,South,186,0.0,4.0,95,0.00,,BKN035,0.00,VWS V14.01,2013-05-12 04:26:00,
2013-05-12 00:27:00,71.2,69.7,29.99,South,186,0.0,4.0,95,0.00,,BKN035,0.00,VWS V14.01,2013-05-12 04:27:00,
2013-05-12 00:31:00,71.2,69.7,30.00,South,186,0.0,4.0,95,0.00,,BKN035,0.00,VWS V14.01,2013-05-12 04:31:00,
2013-05-12 00:32:00,71.2,69.7,30.00,South,186,0.0,4.0,95,0.00,,BKN035,0.00,VWS V14.01,2013-05-12 04:32:00,
2013-05-12 00:36:00,71.2,69.7,30.00,South,186,0.0,4.0,95,0.00,,BKN035,0.00,VWS V14.01,2013-05-12 04:36:00,
2013-05-12 00:37:00,71.2,69.7,30.00,South,186,0.0,4.0,95,0.00,,BKN035,0.00,VWS V14.01,2013-05-12 04:37:00,
2013-05-12 00:41:00,71.2,69.7,29.99,South,186,0.0,4.0,95,0.00,,BKN035,0.00,VWS V14.01,2013-05-12 04:41:00,
2013-05-12 00:42:00,71.3,69.8,30.00,South,186,0.0,4.0,95,0.00,,BKN035,0.00,VWS V14.01,2013-05-12 04:42:00,
2013-05-12 00:46:00,71.2,69.7,29.99,South,186,0.0,4.0,95,0.00,,BKN035,0.00,VWS V14.01,2013-05-12 04:46:00,
2013-05-12 00:47:00,71.3,69.8,29.99,South,186,0.0,4.0,95,0.00,,BKN035,0.00,VWS V14.01,2013-05-12 04:47:00,
2013-05-12 00:48:00,71.2,69.7,29.99,South,186,0.0,4.0,95,0.00,,BKN035,0.00,VWS V14.01,2013-05-12 04:48:00,
2013-05-12 00:51:00,71.2,69.7,29.98,South,186,0.0,4.0,95,0.00,,BKN035,0.00,VWS V14.01,2013-05-12 04:51:00,
2013-05-12 00:52:00,71.2,69.7,29.98,South,186,0.0,4.0,95,0.00,,BKN035,0.00,VWS V14.01,2013-05-12 04:52:00,
2013-05-12 00:53:00,71.2,69.7,29.98,South,186,0.0,4.0,95,0.00,,BKN035,0.00,VWS V14.01,2013-05-12 04:53:00,
2013-05-12 00:56:00,71.2,69.7,29.98,South,186,0.0,4.0,95,0.00,,BKN035,0.00,VWS V14.01,2013-05-12 04:56:00,
2013-05-12 00:57:00,71.2,69.7,29.98,South,186,0.0,4.0,95,0.00,,BKN035,0.00,VWS V14.01,2013-05-12 04:57:00,
2013-05-12 00:58:00,71.2,69.7,29.98,South,186,0.0,4.0,95,0.00,,BKN035,0.00,VWS V14.01,2013-05-12 04:58:00,
2013-05-12 01:00:00,71.2,69.7,29.98,South,186,0.0,4.0,95,0.00,,BKN035,0.00,VWS V14.01,2013-05-12 05:00:00,
2013-05-12 01:01:00,71.2,69.7,29.98,South,186,0.0,0.0,95,0.00,,BKN035,0.00,VWS V14.01,2013-05-12 05:01:00,
2013-05-12 01:02:00,71.2,69.7,29.98,South,186,0.0,0.0,95,0.00,,BKN035,0.00,VWS V14.01,2013-05-12 05:02:00,
2013-05-12 01:03:00,71.2,69.7,29.98,South,186,0.0,0.0,95,0.00,,BKN035,0.00,VWS V14.01,2013-05-12 05:03:00,
2013-05-12 01:06:00,71.2,69.7,29.98,South,186,0.0,0.0,95,0.00,,BKN035,0.00,VWS V14.01,2013-05-12 05:06:00,
2013-05-12 01:07:00,71.2,69.7,29.98,South,186,0.0,0.0,95,0.00,,BKN035,0.00,VWS V14.01,2013-05-12 05:07:00,
2013-05-12 01:08:00,71.3,69.8,29.98,South,186,0.0,0.0,95,0.00,,BKN035,0.00,VWS V14.01,2013-05-12 05:08:00,
2013-05-12 01:11:00,71.3,69.8,29.99,South,186,0.0,0.0,95,0.00,,BKN035,0.00,VWS V14.01,2013-05-12 05:11:00,
2013-05-12 01:12:00,71.3,69.8,29.99,South,186,0.0,0.0,95,0.00,,BKN035,0.00,VWS V14.01,2013-05-12 05:12:00,
2013-05-12 01:13:00,71.3,69.8,29.99,South,186,0.0,0.0,95,0.00,,BKN035,0.00,VWS V14.01,2013-05-12 05:13:00,
2013-05-12 01:17:00,71.2,69.7,29.99,South,186,0.0,2.0,95,0.00,,BKN035,0.00,VWS V14.01,2013-05-12 05:17:00,
2013-05-12 01:18:00,71.2,69.7,29.99,South,186,0.0,2.0,95,0.00,,BKN035,0.00,VWS V14.01,2013-05-12 05:18:00,
2013-05-12 01:22:00,71.2,69.7,29.99,South,186,0.0,2.0,95,0.00,,BKN035,0.00,VWS V14.01,2013-05-12 05:22:00,
2013-05-12 01:23:00,71.2,69.7,29.98,South,186,0.0,2.0,95,0.00,,BKN035,0.00,VWS V14.01,2013-05-12 05:23:00,
2013-05-12 01:27:00,71.2,69.7,29.98,South,186,0.0,5.0,95,0.00,,BKN035,0.00,VWS V14.01,2013-05-12 05:27:00,
2013-05-12 01:28:00,71.2,69.7,29.98,South,186,0.0,5.0,95,0.00,,BKN035,0.00,VWS V14.01,2013-05-12 05:28:00,
2013-05-12 01:29:00,71.2,69.7,29.98,South,186,0.0,5.0,95,0.00,,BKN035,0.00,VWS V14.01,2013-05-12 05:29:00,
2013-05-12 01:32:00,71.1,69.6,29.98,South,186,0.0,5.0,95,0.00,,BKN035,0.00,VWS V14.01,2013-05-12 05:32:00,
2013-05-12 01:33:00,71.1,69.9,29.99,South,186,0.0,5.0,96,0.00,,BKN035,0.00,VWS V14.01,2013-05-12 05:33:00,
2013-05-12 01:34:00,71.1,69.9,29.99,South,186,0.0,5.0,96,0.00,,BKN035,0.00,VWS V14.01,2013-05-12 05:34:00,
2013-05-12 01:37:00,71.0,69.5,29.99,South,186,0.0,5.0,95,0.00,,BKN035,0.00,VWS V14.01,2013-05-12 05:37:00,
2013-05-12 01:38:00,71.0,69.5,29.99,South,186,3.0,5.0,95,0.00,,BKN035,0.00,VWS V14.01,2013-05-12 05:38:00,
2013-05-12 01:39:00,71.0,69.5,29.99,South,186,2.0,5.0,95,0.00,,BKN035,0.00,VWS V14.01,2013-05-12 05:39:00,
2013-05-12 01:42:00,70.9,69.7,29.99,South,186,0.0,5.0,96,0.00,,BKN035,0.00,VWS V14.01,2013-05-12 05:42:00,
2013-05-12 01:43:00,70.8,69.6,29.98,South,186,0.0,5.0,96,0.00,,BKN035,0.00,VWS V14.01,2013-05-12 05:43:00,
2013-05-12 01:44:00,70.8,69.3,29.99,South,186,0.0,5.0,95,0.00,,BKN035,0.00,VWS V14.01,2013-05-12 05:44:00,
2013-05-12 01:47:00,70.8,69.3,29.98,South,186,0.0,5.0,95,0.00,,BKN035,0.00,VWS V14.01,2013-05-12 05:47:00,
2013-05-12 01:48:00,70.8,69.3,29.98,South,186,0.0,5.0,95,0.00,,BKN035,0.00,VWS V14.01,2013-05-12 05:48:00,
2013-05-12 01:49:00,70.7,69.2,29.98,South,186,0.0,5.0,95,0.00,,BKN035,0.00,VWS V14.01,2013-05-12 05:49:00,
2013-05-12 01:50:00,70.7,69.2,29.99,South,186,0.0,5.0,95,0.00,,BKN035,0.00,VWS V14.01,2013-05-12 05:50:00,
2013-05-12 01:52:00,70.7,69.5,29.98,South,186,0.0,5.0,96,0.00,,BKN035,0.00,VWS V14.01,2013-05-12 05:52:00,
2013-05-12 01:53:00,70.7,69.5,29.99,South,186,0.0,5.0,96,0.00,,BKN035,0.00,VWS V14.01,2013-05-12 05:53:00,
2013-05-12 01:54:00,70.7,69.5,29.98,South,186,0.0,5.0,96,0.00,,BKN035,0.00,VWS V14.01,2013-05-12 05:54:00,
2013-05-12 01:55:00,70.7,69.5,29.99,South,186,0.0,5.0,96,0.00,,BKN035,0.00,VWS V14.01,2013-05-12 05:55:00,
2013-05-12 01:57:00,70.6,69.4,29.98,South,186,0.0,5.0,96,0.00,,BKN035,0.00,VWS V14.01,2013-05-12 05:57:00,
2013-05-12 01:58:00,70.6,69.4,29.98,South,186,0.0,5.0,96,0.00,,BKN035,0.00,VWS V14.01,2013-05-12 05:58:00,
2013-05-12 01:59:00,70.6,69.4,29.98,South,186,0.0,5.0,96,0.00,,BKN035,0.00,VWS V14.01,2013-05-12 05:59:00,
2013-05-12 02:00:00,70.6,69.4,29.98,South,186,0.0,5.0,96,0.00,,BKN035,0.00,VWS V14.01,2013-05-12 06:00:00,
2013-05-12 02:02:00,70.5,69.3,29.98,South,186,0.0,0.0,96,0.00,,BKN035,0.00,VWS V14.01,2013-05-12 06:02:00,
2013-05-12 02:03:00,70.6,69.4,29.98,South,186,0.0,0.0,96,0.00,,BKN035,0.00,VWS V14.01,2013-05-12 06:03:00,
2013-05-12 02:04:00,70.6,69.4,29.98,South,186,0.0,0.0,96,0.00,,BKN035,0.00,VWS V14.01,2013-05-12 06:04:00,
2013-05-12 02:05:00,70.5,69.3,29.98,South,186,0.0,0.0,96,0.00,,BKN035,0.00,VWS V14.01,2013-05-12 06:05:00,
2013-05-12 02:07:00,70.5,69.3,29.98,South,186,0.0,0.0,96,0.00,,BKN035,0.00,VWS V14.01,2013-05-12 06:07:00,
2013-05-12 02:09:00,70.5,69.3,29.98,South,186,0.0,0.0,96,0.00,,BKN035,0.00,VWS V14.01,2013-05-12 06:09:00,
2013-05-12 02:10:00,70.5,69.3,29.98,South,186,0.0,0.0,96,0.00,,BKN035,0.00,VWS V14.01,2013-05-12 06:10:00,
2013-05-12 02:13:00,70.5,69.3,29.99,South,186,0.0,2.0,96,0.00,,BKN035,0.00,VWS V14.01,2013-05-12 06:13:00,
2013-05-12 02:14:00,70.5,69.3,29.99,South,186,2.0,3.0,96,0.00,,BKN035,0.00,VWS V14.01,2013-05-12 06:14:00,
2013-05-12 02:15:00,70.5,69.3,29.99,South,186,0.0,3.0,96,0.00,,BKN035,0.00,VWS V14.01,2013-05-12 06:15:00,
2013-05-12 02:18:00,70.5,69.3,29.98,South,186,0.0,3.0,96,0.00,,BKN035,0.00,VWS V14.01,2013-05-12 06:18:00,
2013-05-12 02:19:00,70.5,69.3,29.98,South,186,0.0,3.0,96,0.00,,BKN035,0.00,VWS V14.01,2013-05-12 06:19:00,
2013-05-12 02:20:00,70.4,69.2,29.98,South,186,0.0,3.0,96,0.00,,BKN035,0.00,VWS V14.01,2013-05-12 06:20:00,
2013-05-12 02:23:00,70.4,69.2,29.98,South,186,0.0,3.0,96,0.00,,BKN035,0.00,VWS V14.01,2013-05-12 06:23:00,
2013-05-12 02:24:00,70.4,69.2,29.98,South,186,0.0,3.0,96,0.00,,BKN035,0.00,VWS V14.01,2013-05-12 06:24:00,
2013-05-12 02:25:00,70.4,69.2,29.98,South,186,0.0,3.0,96,0.00,,BKN035,0.00,VWS V14.01,2013-05-12 06:25:00,
2013-05-12 02:28:00,70.4,69.2,29.98,South,186,0.0,3.0,96,0.00,,BKN035,0.00,VWS V14.01,2013-05-12 06:28:00,
2013-05-12 02:29:00,70.3,69.1,29.98,South,186,0.0,3.0,96,0.00,,BKN035,0.00,VWS V14.01,2013-05-12 06:29:00,
2013-05-12 02:30:00,70.3,69.1,29.98,South,186,0.0,3.0,96,0.00,,BKN035,0.00,VWS V14.01,2013-05-12 06:30:00,
2013-05-12 02:33:00,70.3,69.1,29.97,South,186,0.0,3.0,96,0.00,,BKN035,0.00,VWS V14.01,2013-05-12 06:33:00,
2013-05-12 02:34:00,70.3,69.1,29.97,South,186,0.0,4.0,96,0.00,,BKN035,0.00,VWS V14.01,2013-05-12 06:34:00,
2013-05-12 02:35:00,70.3,69.1,29.97,South,186,0.0,4.0,96,0.00,,BKN035,0.00,VWS V14.01,2013-05-12 06:35:00,
2013-05-12 02:38:00,70.3,69.1,29.97,South,186,0.0,4.0,96,0.00,,BKN035,0.00,VWS V14.01,2013-05-12 06:38:00,
2013-05-12 02:39:00,70.3,69.1,29.97,South,186,0.0,4.0,96,0.00,,BKN035,0.00,VWS V14.01,2013-05-12 06:39:00,
2013-05-12 02:40:00,70.3,69.1,29.98,South,186,0.0,4.0,96,0.00,,BKN035,0.00,VWS V14.01,2013-05-12 06:40:00,
2013-05-12 02:41:00,70.3,69.1,29.97,South,186,0.0,4.0,96,0.00,,BKN035,0.00,VWS V14.01,2013-05-12 06:41:00,
2013-05-12 02:43:00,70.3,69.1,29.97,South,186,0.0,4.0,96,0.00,,BKN035,0.00,VWS V14.01,2013-05-12 06:43:00,
2013-05-12 02:44:00,70.2,69.0,29.97,South,186,0.0,4.0,96,0.00,,BKN035,0.00,VWS V14.01,2013-05-12 06:44:00,
2013-05-12 02:45:00,70.2,69.0,29.97,South,186,0.0,4.0,96,0.00,,BKN035,0.00,VWS V14.01,2013-05-12 06:45:00,
2013-05-12 02:46:00,70.2,69.0,29.97,South,186,0.0,4.0,96,0.00,,BKN035,0.00,VWS V14.01,2013-05-12 06:46:00,
2013-05-12 02:48:00,70.2,69.0,29.97,South,186,0.0,4.0,96,0.00,,BKN035,0.00,VWS V14.01,2013-05-12 06:48:00,
2013-05-12 02:49:00,70.2,69.0,29.97,South,186,0.0,4.0,96,0.00,,BKN035,0.00,VWS V14.01,2013-05-12 06:49:00,
2013-05-12 02:50:00,70.2,69.0,29.97,South,186,0.0,4.0,96,0.00,,BKN035,0.00,VWS V14.01,2013-05-12 06:50:00,
2013-05-12 02:51:00,70.2,69.0,29.97,South,186,0.0,4.0,96,0.00,,BKN035,0.00,VWS V14.01,2013-05-12 06:51:00,
2013-05-12 02:54:00,70.2,69.0,29.97,South,186,0.0,4.0,96,0.00,,BKN035,0.00,VWS V14.01,2013-05-12 06:54:00,
2013-05-12 02:55:00,70.2,69.0,29.97,South,186,0.0,4.0,96,0.00,,BKN035,0.00,VWS V14.01,2013-05-12 06:55:00,
2013-05-12 02:56:00,70.2,69.0,29.97,South,186,0.0,4.0,96,0.00,,BKN035,0.00,VWS V14.01,2013-05-12 06:56:00,
2013-05-12 02:59:00,70.2,69.0,29.97,South,186,0.0,4.0,96,0.00,,BKN035,0.00,VWS V14.01,2013-05-12 06:59:00,
2013-05-12 03:00:00,70.2,69.0,29.97,South,186,0.0,4.0,96,0.00,,BKN035,0.00,VWS V14.01,2013-05-12 07:00:00,
2013-05-12 03:01:00,70.2,69.0,29.97,South,186,0.0,0.0,96,0.00,,BKN035,0.00,VWS V14.01,2013-05-12 07:01:00,
2013-05-12 03:04:00,70.2,69.0,29.97,South,186,0.0,0.0,96,0.00,,BKN035,0.00,VWS V14.01,2013-05-12 07:04:00,
2013-05-12 03:05:00,70.2,69.0,29.97,South,186,1.0,1.0,96,0.00,,BKN035,0.00,VWS V14.01,2013-05-12 07:05:00,
2013-05-12 03:06:00,70.2,69.0,29.97,South,186,0.0,1.0,96,0.00,,BKN035,0.00,VWS V14.01,2013-05-12 07:06:00,
2013-05-12 03:09:00,70.2,68.7,29.96,South,186,0.0,1.0,95,0.00,,BKN035,0.00,VWS V14.01,2013-05-12 07:09:00,
2013-05-12 03:10:00,70.2,68.7,29.96,South,186,0.0,1.0,95,0.00,,BKN035,0.00,VWS V14.01,2013-05-12 07:10:00,
2013-05-12 03:11:00,70.2,68.7,29.96,South,186,0.0,1.0,95,0.00,,BKN035,0.00,VWS V14.01,2013-05-12 07:11:00,
2013-05-12 03:15:00,70.1,68.6,29.96,South,186,0.0,3.0,95,0.00,,BKN035,0.00,VWS V14.01,2013-05-12 07:15:00,
2013-05-12 03:16:00,70.1,68.6,29.96,South,186,0.0,3.0,95,0.00,,BKN035,0.00,VWS V14.01,2013-05-12 07:16:00,
2013-05-12 03:17:00,70.1,68.6,29.96,South,186,0.0,3.0,95,0.00,,BKN035,0.00,VWS V14.01,2013-05-12 07:17:00,
2013-05-12 03:20:00,70.1,68.6,29.95,South,186,0.0,3.0,95,0.00,,BKN035,0.00,VWS V14.01,2013-05-12 07:20:00,
2013-05-12 03:21:00,70.1,68.6,29.95,South,186,0.0,3.0,95,0.00,,BKN035,0.00,VWS V14.01,2013-05-12 07:21:00,
2013-05-12 03:22:00,70.1,68.6,29.95,South,186,0.0,3.0,95,0.00,,BKN035,0.00,VWS V14.01,2013-05-12 07:22:00,
2013-05-12 03:25:00,70.0,68.5,29.95,South,186,0.0,3.0,95,0.00,,BKN035,0.00,VWS V14.01,2013-05-12 07:25:00,
2013-05-12 03:26:00,70.0,68.5,29.95,South,186,0.0,3.0,95,0.00,,BKN035,0.00,VWS V14.01,2013-05-12 07:26:00,
2013-05-12 03:27:00,70.0,68.5,29.95,South,186,0.0,3.0,95,0.00,,BKN035,0.00,VWS V14.01,2013-05-12 07:27:00,
2013-05-12 03:30:00,69.9,68.4,29.95,South,186,0.0,3.0,95,0.00,,BKN035,0.00,VWS V14.01,2013-05-12 07:30:00,
2013-05-12 03:31:00,69.9,68.4,29.95,South,186,0.0,3.0,95,0.00,,BKN035,0.00,VWS V14.01,2013-05-12 07:31:00,
2013-05-12 03:32:00,69.9,68.4,29.95,South,186,0.0,3.0,95,0.00,,BKN035,0.00,VWS V14.01,2013-05-12 07:32:00,
2013-05-12 03:36:00,69.9,68.4,29.95,South,186,0.0,3.0,95,0.00,,BKN035,0.00,VWS V14.01,2013-05-12 07:36:00,
2013-05-12 03:37:00,69.9,68.4,29.95,South,186,0.0,3.0,95,0.00,,BKN035,0.00,VWS V14.01,2013-05-12 07:37:00,
2013-05-12 03:41:00,69.9,68.4,29.95,South,186,0.0,3.0,95,0.00,,BKN035,0.00,VWS V14.01,2013-05-12 07:41:00,
2013-05-12 03:42:00,69.9,68.4,29.95,South,186,0.0,3.0,95,0.00,,BKN035,0.00,VWS V14.01,2013-05-12 07:42:00,
2013-05-12 03:46:00,69.9,68.4,29.94,South,186,0.0,3.0,95,0.00,,BKN035,0.00,VWS V14.01,2013-05-12 07:46:00,
2013-05-12 03:47:00,69.8,68.3,29.94,South,186,0.0,3.0,95,0.00,,BKN035,0.00,VWS V14.01,2013-05-12 07:47:00,
2013-05-12 03:51:00,69.8,68.6,29.94,South,186,0.0,3.0,96,0.00,,BKN035,0.00,VWS V14.01,2013-05-12 07:51:00,
2013-05-12 03:52:00,69.8,68.6,29.94,South,186,0.0,3.0,96,0.00,,BKN035,0.00,VWS V14.01,2013-05-12 07:52:00,
2013-05-12 03:53:00,69.8,68.6,29.94,South,186,0.0,3.0,96,0.00,,BKN035,0.00,VWS V14.01,2013-05-12 07:53:00,
2013-05-12 03:56:00,69.9,68.7,29.94,South,186,0.0,3.0,96,0.00,,BKN035,0.00,VWS V14.01,2013-05-12 07:56:00,
2013-05-12 03:57:00,69.8,68.6,29.94,South,186,0.0,3.0,96,0.00,,BKN035,0.00,VWS V14.01,2013-05-12 07:57:00,
2013-05-12 03:58:00,69.9,68.7,29.94,South,186,0.0,3.0,96,0.00,,BKN035,0.00,VWS V14.01,2013-05-12 07:58:00,
2013-05-12 04:00:00,69.9,68.7,29.93,South,186,0.0,3.0,96,0.00,,BKN035,0.00,VWS V14.01,2013-05-12 08:00:00,
2013-05-12 04:01:00,69.9,68.7,29.94,South,186,0.0,0.0,96,0.00,,BKN035,0.00,VWS V14.01,2013-05-12 08:01:00,
2013-05-12 04:02:00,69.9,68.7,29.93,South,186,0.0,0.0,96,0.00,,BKN035,0.00,VWS V14.01,2013-05-12 08:02:00,
2013-05-12 04:03:00,69.9,68.7,29.93,South,186,0.0,0.0,96,0.00,,BKN035,0.00,VWS V14.01,2013-05-12 08:03:00,
2013-05-12 04:07:00,69.9,68.7,29.93,South,186,0.0,0.0,96,0.00,,BKN035,0.00,VWS V14.01,2013-05-12 08:07:00,
2013-05-12 04:08:00,69.9,68.7,29.93,South,186,0.0,0.0,96,0.00,,BKN035,0.00,VWS V14.01,2013-05-12 08:08:00,
2013-05-12 04:12:00,69.9,68.7,29.93,South,186,0.0,2.0,96,0.00,,BKN035,0.00,VWS V14.01,2013-05-12 08:12:00,
2013-05-12 04:13:00,69.9,68.7,29.93,South,186,0.0,2.0,96,0.00,,BKN035,0.00,VWS V14.01,2013-05-12 08:13:00,
2013-05-12 04:17:00,69.8,68.6,29.93,South,186,0.0,2.0,96,0.00,,BKN035,0.00,VWS V14.01,2013-05-12 08:17:00,
2013-05-12 04:18:00,69.8,68.6,29.93,South,186,0.0,2.0,96,0.00,,BKN035,0.00,VWS V14.01,2013-05-12 08:18:00,
2013-05-12 04:22:00,69.8,68.6,29.93,South,186,0.0,2.0,96,0.00,,BKN035,0.00,VWS V14.01,2013-05-12 08:22:00,
2013-05-12 04:23:00,69.7,68.5,29.93,South,186,0.0,2.0,96,0.00,,BKN035,0.00,VWS V14.01,2013-05-12 08:23:00,
2013-05-12 04:27:00,69.7,68.5,29.93,South,186,0.0,3.0,96,0.00,,BKN035,0.00,VWS V14.01,2013-05-12 08:27:00,
2013-05-12 04:28:00,69.7,68.5,29.93,South,186,0.0,3.0,96,0.00,,BKN035,0.00,VWS V14.01,2013-05-12 08:28:00,
2013-05-12 04:29:00,69.7,68.5,29.93,South,186,0.0,3.0,96,0.00,,BKN035,0.00,VWS V14.01,2013-05-12 08:29:00,
2013-05-12 04:32:00,69.6,68.1,29.92,South,186,0.0,3.0,95,0.00,,BKN035,0.00,VWS V14.01,2013-05-12 08:32:00,
2013-05-12 04:33:00,69.6,68.1,29.92,South,186,0.0,3.0,95,0.00,,BKN035,0.00,VWS V14.01,2013-05-12 08:33:00,
2013-05-12 04:34:00,69.6,68.1,29.92,South,186,0.0,3.0,95,0.00,,BKN035,0.00,VWS V14.01,2013-05-12 08:34:00,
2013-05-12 04:37:00,69.6,68.1,29.92,South,186,0.0,3.0,95,0.00,,BKN035,0.00,VWS V14.01,2013-05-12 08:37:00,
2013-05-12 04:38:00,69.6,68.1,29.92,South,187,2.0,3.0,95,0.00,,BKN035,0.00,VWS V14.01,2013-05-12 08:38:00,
2013-05-12 04:39:00,69.6,68.1,29.92,South,188,0.0,4.0,95,0.00,,BKN035,0.00,VWS V14.01,2013-05-12 08:39:00,
2013-05-12 04:43:00,69.6,68.1,29.93,South,187,0.0,4.0,95,0.00,,BKN035,0.00,VWS V14.01,2013-05-12 08:43:00,
2013-05-12 04:44:00,69.6,68.1,29.93,South,187,0.0,4.0,95,0.00,,BKN035,0.00,VWS V14.01,2013-05-12 08:44:00,
2013-05-12 04:48:00,69.5,68.0,29.92,South,188,0.0,4.0,95,0.00,,BKN035,0.00,VWS V14.01,2013-05-12 08:48:00,
2013-05-12 04:49:00,69.5,68.0,29.92,South,187,0.0,4.0,95,0.00,,BKN035,0.00,VWS V14.01,2013-05-12 08:49:00,
2013-05-12 04:53:00,69.5,68.0,29.92,South,188,0.0,4.0,95,0.00,,BKN035,0.00,VWS V14.01,2013-05-12 08:53:00,
2013-05-12 04:54:00,69.5,68.0,29.92,South,187,0.0,4.0,95,0.00,,BKN035,0.00,VWS V14.01,2013-05-12 08:54:00,
2013-05-12 04:58:00,69.5,68.0,29.92,South,187,2.0,4.0,95,0.00,,BKN035,0.00,VWS V14.01,2013-05-12 08:58:00,
2013-05-12 04:59:00,69.5,68.0,29.92,South,188,0.0,4.0,95,0.00,,BKN035,0.00,VWS V14.01,2013-05-12 08:59:00,
2013-05-12 05:00:00,69.5,68.0,29.92,South,188,0.0,4.0,95,0.00,,BKN035,0.00,VWS V14.01,2013-05-12 09:00:00,
2013-05-12 05:03:00,69.5,68.0,29.92,South,187,0.0,1.0,95,0.00,,BKN035,0.00,VWS V14.01,2013-05-12 09:03:00,
2013-05-12 05:04:00,69.5,68.0,29.92,South,187,0.0,1.0,95,0.00,,BKN035,0.00,VWS V14.01,2013-05-12 09:04:00,
2013-05-12 05:05:00,69.5,68.0,29.92,South,187,0.0,1.0,95,0.00,,BKN035,0.00,VWS V14.01,2013-05-12 09:05:00,
2013-05-12 05:08:00,69.5,68.0,29.92,South,188,0.0,4.0,95,0.00,,BKN035,0.00,VWS V14.01,2013-05-12 09:08:00,
2013-05-12 05:09:00,69.5,68.0,29.93,South,188,0.0,4.0,95,0.00,,BKN035,0.00,VWS V14.01,2013-05-12 09:09:00,
2013-05-12 05:10:00,69.5,68.0,29.93,South,188,0.0,4.0,95,0.00,,BKN035,0.00,VWS V14.01,2013-05-12 09:10:00,
2013-05-12 05:13:00,69.4,67.9,29.92,South,187,0.0,4.0,95,0.00,,BKN035,0.00,VWS V14.01,2013-05-12 09:13:00,
2013-05-12 05:14:00,69.4,67.6,29.92,South,187,0.0,4.0,94,0.00,,BKN035,0.00,VWS V14.01,2013-05-12 09:14:00,
2013-05-12 05:15:00,69.4,67.6,29.92,South,188,0.0,4.0,94,0.00,,BKN035,0.00,VWS V14.01,2013-05-12 09:15:00,
2013-05-12 05:18:00,69.4,67.6,29.92,South,188,3.0,4.0,94,0.00,,BKN035,0.00,VWS V14.01,2013-05-12 09:18:00,
2013-05-12 05:19:00,69.3,67.5,29.92,South,188,0.0,4.0,94,0.00,,BKN035,0.00,VWS V14.01,2013-05-12 09:19:00,
2013-05-12 05:20:00,69.4,67.6,29.92,South,188,2.0,5.0,94,0.00,,BKN035,0.00,VWS V14.01,2013-05-12 09:20:00,
2013-05-12 05:23:00,69.3,67.5,29.92,South,188,0.0,5.0,94,0.00,,BKN035,0.00,VWS V14.01,2013-05-12 09:23:00,
2013-05-12 05:24:00,69.3,67.5,29.92,South,188,1.0,5.0,94,0.00,,BKN035,0.00,VWS V14.01,2013-05-12 09:24:00,
2013-05-12 05:25:00,69.3,67.8,29.93,South,187,1.0,5.0,95,0.00,,BKN035,0.00,VWS V14.01,2013-05-12 09:25:00,
2013-05-12 05:28:00,69.2,67.4,29.93,South,187,0.0,5.0,94,0.00,,BKN035,0.00,VWS V14.01,2013-05-12 09:28:00,
2013-05-12 05:29:00,69.2,67.4,29.93,South,188,0.0,5.0,94,0.00,,BKN035,0.00,VWS V14.01,2013-05-12 09:29:00,
2013-05-12 05:30:00,69.2,67.4,29.93,South,188,0.0,5.0,94,0.00,,BKN035,0.00,VWS V14.01,2013-05-12 09:30:00,
2013-05-12 05:34:00,69.1,67.6,29.93,South,188,0.0,5.0,95,0.00,,BKN035,0.00,VWS V14.01,2013-05-12 09:34:00,
2013-05-12 05:35:00,69.1,67.6,29.93,South,188,0.0,5.0,95,0.00,,BKN035,0.00,VWS V14.01,2013-05-12 09:35:00,
2013-05-12 05:39:00,69.0,67.5,29.93,South,188,0.0,5.0,95,0.00,,BKN035,0.00,VWS V14.01,2013-05-12 09:39:00,
2013-05-12 05:40:00,69.0,67.5,29.93,South,187,0.0,5.0,95,0.00,,BKN035,0.00,VWS V14.01,2013-05-12 09:40:00,
2013-05-12 05:44:00,68.9,67.4,29.94,South,188,0.0,5.0,95,0.00,,BKN035,0.00,VWS V14.01,2013-05-12 09:44:00,
2013-05-12 05:45:00,68.9,67.4,29.94,South,188,0.0,5.0,95,0.00,,BKN035,0.00,VWS V14.01,2013-05-12 09:45:00,
2013-05-12 05:49:00,68.9,67.4,29.94,South,188,0.0,5.0,95,0.01,,BKN035,0.01,VWS V14.01,2013-05-12 09:49:00,
2013-05-12 05:50:00,68.8,67.3,29.94,South,188,0.0,5.0,95,0.01,,BKN035,0.01,VWS V14.01,2013-05-12 09:50:00,
2013-05-12 05:51:00,68.8,67.3,29.94,South,187,0.0,5.0,95,0.01,,BKN035,0.01,VWS V14.01,2013-05-12 09:51:00,
2013-05-12 05:54:00,68.8,67.3,29.94,South,188,0.0,5.0,95,0.01,,BKN035,0.01,VWS V14.01,2013-05-12 09:54:00,
2013-05-12 05:55:00,68.8,67.3,29.94,South,187,0.0,5.0,95,0.01,,BKN035,0.01,VWS V14.01,2013-05-12 09:55:00,
2013-05-12 05:56:00,68.8,67.3,29.94,South,187,0.0,5.0,95,0.01,,BKN035,0.01,VWS V14.01,2013-05-12 09:56:00,
2013-05-12 05:59:00,68.8,67.3,29.94,South,187,0.0,5.0,95,0.01,,BKN035,0.01,VWS V14.01,2013-05-12 09:59:00,
2013-05-12 06:00:00,68.8,67.3,29.94,South,187,0.0,5.0,95,0.01,,BKN035,0.01,VWS V14.01,2013-05-12 10:00:00,
2013-05-12 06:01:00,68.8,67.3,29.94,South,188,0.0,0.0,95,0.01,,BKN035,0.01,VWS V14.01,2013-05-12 10:01:00,
2013-05-12 06:04:00,68.8,67.6,29.94,South,188,0.0,0.0,96,0.01,,BKN035,0.01,VWS V14.01,2013-05-12 10:04:00,
2013-05-12 06:05:00,68.8,67.6,29.94,South,188,0.0,0.0,96,0.01,,BKN035,0.01,VWS V14.01,2013-05-12 10:05:00,
2013-05-12 06:06:00,68.8,67.6,29.94,South,187,0.0,0.0,96,0.01,,BKN035,0.01,VWS V14.01,2013-05-12 10:06:00,
2013-05-12 06:09:00,68.8,67.6,29.94,South,188,0.0,3.0,96,0.01,,BKN035,0.01,VWS V14.01,2013-05-12 10:09:00,
2013-05-12 06:10:00,68.8,67.6,29.94,South,187,0.0,3.0,96,0.01,,BKN035,0.01,VWS V14.01,2013-05-12 10:10:00,
2013-05-12 06:11:00,68.8,67.6,29.94,South,187,0.0,3.0,96,0.01,,BKN035,0.01,VWS V14.01,2013-05-12 10:11:00,
2013-05-12 06:12:00,68.8,67.6,29.94,South,187,0.0,3.0,96,0.01,,BKN035,0.01,VWS V14.01,2013-05-12 10:12:00,
2013-05-12 06:15:00,68.8,67.6,29.94,South,188,0.0,3.0,96,0.01,,BKN035,0.01,VWS V14.01,2013-05-12 10:15:00,
2013-05-12 06:16:00,68.8,67.6,29.94,South,187,0.0,3.0,96,0.01,,BKN035,0.01,VWS V14.01,2013-05-12 10:16:00,
2013-05-12 06:17:00,68.8,67.6,29.94,South,187,0.0,3.0,96,0.01,,BKN035,0.01,VWS V14.01,2013-05-12 10:17:00,
2013-05-12 06:20:00,68.8,67.6,29.94,South,188,0.0,3.0,96,0.01,,BKN035,0.01,VWS V14.01,2013-05-12 10:20:00,
2013-05-12 06:21:00,68.8,67.6,29.94,South,188,0.0,3.0,96,0.01,,BKN035,0.01,VWS V14.01,2013-05-12 10:21:00,
2013-05-12 06:22:00,68.7,67.5,29.94,South,187,0.0,3.0,96,0.01,,BKN035,0.01,VWS V14.01,2013-05-12 10:22:00,
2013-05-12 06:25:00,68.6,67.4,29.93,South,188,0.0,3.0,96,0.01,,BKN035,0.01,VWS V14.01,2013-05-12 10:25:00,
2013-05-12 06:26:00,68.6,67.4,29.94,South,188,0.0,3.0,96,0.01,,BKN035,0.01,VWS V14.01,2013-05-12 10:26:00,
2013-05-12 06:27:00,68.6,67.4,29.94,South,187,0.0,3.0,96,0.01,,BKN035,0.01,VWS V14.01,2013-05-12 10:27:00,
2013-05-12 06:30:00,68.6,67.4,29.94,South,188,0.0,3.0,96,0.01,,BKN035,0.01,VWS V14.01,2013-05-12 10:30:00,
2013-05-12 06:31:00,68.6,67.4,29.94,South,187,0.0,3.0,96,0.01,,BKN035,0.01,VWS V14.01,2013-05-12 10:31:00,
2013-05-12 06:32:00,68.6,67.4,29.93,South,187,0.0,3.0,96,0.01,,BKN035,0.01,VWS V14.01,2013-05-12 10:32:00,
2013-05-12 06:35:00,68.5,67.3,29.94,South,187,0.0,3.0,96,0.01,,BKN035,0.01,VWS V14.01,2013-05-12 10:35:00,
2013-05-12 06:36:00,68.5,67.3,29.94,South,188,0.0,3.0,96,0.01,,BKN035,0.01,VWS V14.01,2013-05-12 10:36:00,
2013-05-12 06:37:00,68.5,67.3,29.95,South,188,0.0,3.0,96,0.01,,BKN035,0.01,VWS V14.01,2013-05-12 10:37:00,
2013-05-12 06:40:00,68.5,67.3,29.94,South,188,0.0,3.0,96,0.01,,BKN035,0.01,VWS V14.01,2013-05-12 10:40:00,
2013-05-12 06:41:00,68.5,67.3,29.95,South,188,0.0,3.0,96,0.01,,BKN035,0.01,VWS V14.01,2013-05-12 10:41:00,
2013-05-12 06:42:00,68.4,67.2,29.95,South,187,0.0,3.0,96,0.01,,BKN035,0.01,VWS V14.01,2013-05-12 10:42:00,
2013-05-12 06:46:00,68.4,67.2,29.95,South,188,0.0,3.0,96,0.01,,BKN035,0.01,VWS V14.01,2013-05-12 10:46:00,
2013-05-12 06:48:00,68.5,67.3,29.95,South,188,0.0,3.0,96,0.01,,BKN035,0.01,VWS V14.01,2013-05-12 10:48:00,
2013-05-12 06:51:00,68.6,67.7,29.95,South,188,0.0,3.0,97,0.01,,BKN035,0.01,VWS V14.01,2013-05-12 10:51:00,
2013-05-12 06:53:00,68.6,67.7,29.95,South,187,0.0,3.0,97,0.01,,BKN035,0.01,VWS V14.01,2013-05-12 10:53:00,
2013-05-12 06:56:00,68.6,67.4,29.95,South,187,0.0,3.0,96,0.01,,BKN035,0.01,VWS V14.01,2013-05-12 10:56:00,
2013-05-12 06:58:00,68.6,67.4,29.95,South,188,0.0,3.0,96,0.01,,BKN035,0.01,VWS V14.01,2013-05-12 10:58:00,
2013-05-12 07:00:00,68.6,67.4,29.95,South,187,0.0,4.0,96,0.01,,BKN035,0.01,VWS V14.01,2013-05-12 11:00:00,
2013-05-12 07:01:00,68.6,67.4,29.95,South,188,0.0,0.0,96,0.00,,BKN035,0.01,VWS V14.01,2013-05-12 11:01:00,
2013-05-12 07:03:00,68.7,67.5,29.95,South,188,0.0,2.0,96,0.00,,BKN035,0.01,VWS V14.01,2013-05-12 11:03:00,
2013-05-12 07:06:00,68.7,67.5,29.96,South,187,0.0,2.0,96,0.00,,BKN035,0.01,VWS V14.01,2013-05-12 11:06:00,
2013-05-12 07:07:00,68.7,67.5,29.96,South,187,0.0,2.0,96,0.00,,BKN035,0.01,VWS V14.01,2013-05-12 11:07:00,
2013-05-12 07:08:00,68.7,67.5,29.96,South,188,0.0,2.0,96,0.00,,BKN035,0.01,VWS V14.01,2013-05-12 11:08:00,
2013-05-12 07:11:00,68.8,67.6,29.96,South,188,0.0,3.0,96,0.00,,BKN035,0.01,VWS V14.01,2013-05-12 11:11:00,
2013-05-12 07:12:00,68.8,67.6,29.96,South,188,0.0,3.0,96,0.00,,BKN035,0.01,VWS V14.01,2013-05-12 11:12:00,
2013-05-12 07:13:00,68.8,67.6,29.96,South,188,0.0,3.0,96,0.00,,BKN035,0.01,VWS V14.01,2013-05-12 11:13:00,
2013-05-12 07:16:00,68.9,67.7,29.96,South,187,0.0,5.0,96,0.00,,BKN035,0.01,VWS V14.01,2013-05-12 11:16:00,
2013-05-12 07:17:00,69.0,68.1,29.96,South,187,0.0,5.0,97,0.00,,BKN035,0.01,VWS V14.01,2013-05-12 11:17:00,
2013-05-12 07:18:00,69.0,68.1,29.96,South,188,0.0,5.0,97,0.00,,BKN035,0.01,VWS V14.01,2013-05-12 11:18:00,
2013-05-12 07:22:00,69.1,68.2,29.96,South,188,0.0,5.0,97,0.00,,BKN035,0.01,VWS V14.01,2013-05-12 11:22:00,
2013-05-12 07:23:00,69.2,68.3,29.96,South,187,0.0,5.0,97,0.00,,BKN035,0.01,VWS V14.01,2013-05-12 11:23:00,
2013-05-12 07:27:00,69.3,68.4,29.96,South,188,0.0,5.0,97,0.00,,BKN035,0.01,VWS V14.01,2013-05-12 11:27:00,
2013-05-12 07:28:00,69.3,68.4,29.96,South,187,1.0,6.0,97,0.00,,BKN035,0.01,VWS V14.01,2013-05-12 11:28:00,
2013-05-12 07:32:00,69.4,68.2,29.97,South,188,1.0,6.0,96,0.00,,BKN035,0.01,VWS V14.01,2013-05-12 11:32:00,
2013-05-12 07:34:00,69.5,68.6,29.97,South,187,0.0,6.0,97,0.00,,BKN035,0.01,VWS V14.01,2013-05-12 11:34:00,
2013-05-12 07:37:00,69.5,68.6,29.97,South,188,0.0,6.0,97,0.00,,BKN035,0.01,VWS V14.01,2013-05-12 11:37:00,
2013-05-12 07:39:00,69.5,68.6,29.97,SSW,195,0.0,7.0,97,0.00,,BKN035,0.01,VWS V14.01,2013-05-12 11:39:00,
2013-05-12 07:42:00,69.5,68.6,29.97,SSW,197,5.0,7.0,97,0.00,,BKN035,0.01,VWS V14.01,2013-05-12 11:42:00,
2013-05-12 07:43:00,69.5,68.6,29.97,SSW,198,7.0,7.0,97,0.00,,BKN035,0.01,VWS V14.01,2013-05-12 11:43:00,
2013-05-12 07:44:00,69.5,68.6,29.97,SSW,199,0.0,7.0,97,0.00,,BKN035,0.01,VWS V14.01,2013-05-12 11:44:00,
2013-05-12 07:47:00,69.6,68.7,29.97,SSW,206,5.0,8.0,97,0.00,,BKN035,0.01,VWS V14.01,2013-05-12 11:47:00,
2013-05-12 07:48:00,69.6,68.7,29.98,SSW,206,0.0,8.0,97,0.00,,BKN035,0.01,VWS V14.01,2013-05-12 11:48:00,
2013-05-12 07:49:00,69.7,68.8,29.98,SSW,207,0.0,8.0,97,0.00,,BKN035,0.01,VWS V14.01,2013-05-12 11:49:00,
2013-05-12 07:52:00,69.7,68.8,29.98,SSW,213,4.0,8.0,97,0.00,,BKN035,0.01,VWS V14.01,2013-05-12 11:52:00,
2013-05-12 07:53:00,69.7,68.8,29.98,SSW,213,0.0,8.0,97,0.00,,BKN035,0.01,VWS V14.01,2013-05-12 11:53:00,
2013-05-12 07:54:00,69.8,68.9,29.98,SW,214,2.0,8.0,97,0.00,,BKN035,0.01,VWS V14.01,2013-05-12 11:54:00,
2013-05-12 07:57:00,69.9,69.0,29.98,SW,214,0.0,8.0,97,0.00,,BKN035,0.01,VWS V14.01,2013-05-12 11:57:00,
2013-05-12 07:58:00,69.9,69.0,29.98,SW,214,0.0,8.0,97,0.00,,BKN035,0.01,VWS V14.01,2013-05-12 11:58:00,
2013-05-12 07:59:00,70.0,69.1,29.98,SW,214,3.0,8.0,97,0.00,,BKN035,0.01,VWS V14.01,2013-05-12 11:59:00,
2013-05-12 08:00:00,70.1,69.2,29.98,SW,215,5.0,8.0,97,0.00,,BKN035,0.01,VWS V14.01,2013-05-12 12:00:00,
2013-05-12 08:03:00,70.2,69.3,29.98,SW,218,4.0,6.0,97,0.00,,BKN035,0.01,VWS V14.01,2013-05-12 12:03:00,
2013-05-12 08:04:00,70.3,69.4,29.98,SW,219,4.0,6.0,97,0.00,,BKN035,0.01,VWS V14.01,2013-05-12 12:04:00,
2013-05-12 08:08:00,70.5,69.9,29.98,SW,219,0.0,6.0,98,0.00,,BKN035,0.01,VWS V14.01,2013-05-12 12:08:00,
2013-05-12 08:09:00,70.6,70.0,29.98,SW,219,0.0,6.0,98,0.00,,BKN035,0.01,VWS V14.01,2013-05-12 12:09:00,
2013-05-12 08:13:00,70.9,70.3,29.98,SW,219,0.0,6.0,98,0.00,,BKN035,0.01,VWS V14.01,2013-05-12 12:13:00,
2013-05-12 08:14:00,71.0,70.4,29.98,SW,219,3.0,6.0,98,0.00,,BKN035,0.01,VWS V14.01,2013-05-12 12:14:00,
2013-05-12 08:18:00,71.1,70.5,29.98,SW,223,2.0,7.0,98,0.00,,BKN035,0.01,VWS V14.01,2013-05-12 12:18:00,
2013-05-12 08:19:00,71.2,70.6,29.98,SW,227,7.0,7.0,98,0.00,,BKN035,0.01,VWS V14.01,2013-05-12 12:19:00,
2013-05-12 08:23:00,71.2,70.6,29.98,WSW,238,0.0,7.0,98,0.00,,BKN035,0.01,VWS V14.01,2013-05-12 12:23:00,
2013-05-12 08:24:00,71.3,70.7,29.98,WSW,238,0.0,7.0,98,0.00,,BKN035,0.01,VWS V14.01,2013-05-12 12:24:00,
2013-05-12 08:29:00,71.5,70.9,29.98,WSW,245,0.0,8.0,98,0.00,,BKN035,0.01,VWS V14.01,2013-05-12 12:29:00,
2013-05-12 08:30:00,71.5,70.9,29.99,WSW,246,5.0,8.0,98,0.00,,BKN035,0.01,VWS V14.01,2013-05-12 12:30:00,
2013-05-12 08:34:00,71.5,70.6,29.99,West,259,5.0,9.0,97,0.00,,BKN035,0.01,VWS V14.01,2013-05-12 12:34:00,
2013-05-12 08:35:00,71.5,70.6,29.99,West,260,0.0,9.0,97,0.00,,BKN035,0.01,VWS V14.01,2013-05-12 12:35:00,
2013-05-12 08:39:00,71.7,70.8,29.99,WSW,254,0.0,9.0,97,0.00,,BKN035,0.01,VWS V14.01,2013-05-12 12:39:00,
2013-05-12 08:40:00,71.7,71.1,29.99,WSW,254,0.0,9.0,98,0.00,,BKN035,0.01,VWS V14.01,2013-05-12 12:40:00,
2013-05-12 08:44:00,71.7,70.8,29.99,WSW,255,0.0,9.0,97,0.00,,BKN035,0.01,VWS V14.01,2013-05-12 12:44:00,
2013-05-12 08:45:00,71.7,70.8,29.99,WSW,255,0.0,9.0,97,0.00,,BKN035,0.01,VWS V14.01,2013-05-12 12:45:00,
2013-05-12 08:49:00,72.0,71.1,29.99,WSW,257,0.0,9.0,97,0.00,,BKN035,0.01,VWS V14.01,2013-05-12 12:49:00,
2013-05-12 08:50:00,72.0,71.1,29.99,WSW,257,0.0,9.0,97,0.00,,BKN035,0.01,VWS V14.01,2013-05-12 12:50:00,
2013-05-12 08:51:00,72.0,71.1,29.99,WSW,258,5.0,9.0,97,0.00,,BKN035,0.01,VWS V14.01,2013-05-12 12:51:00,
2013-05-12 08:54:00,72.1,71.2,29.99,WSW,258,0.0,9.0,97,0.00,,BKN035,0.01,VWS V14.01,2013-05-12 12:54:00,
2013-05-12 08:55:00,72.1,71.2,29.99,WSW,258,0.0,9.0,97,0.00,,BKN035,0.01,VWS V14.01,2013-05-12 12:55:00,
2013-05-12 08:56:00,72.2,71.3,29.99,West,259,0.0,9.0,97,0.00,,BKN035,0.01,VWS V14.01,2013-05-12 12:56:00,
2013-05-12 08:59:00,72.4,71.5,29.99,WSW,258,0.0,9.0,97,0.00,,BKN035,0.01,VWS V14.01,2013-05-12 12:59:00,
2013-05-12 09:00:00,72.4,71.5,29.99,WSW,258,0.0,9.0,97,0.00,,BKN035,0.01,VWS V14.01,2013-05-12 13:00:00,
2013-05-12 09:01:00,72.5,71.6,29.99,WSW,258,0.0,0.0,97,0.00,,BKN035,0.01,VWS V14.01,2013-05-12 13:01:00,
2013-05-12 09:05:00,72.8,71.6,30.00,WSW,257,0.0,8.0,96,0.00,,BKN035,0.01,VWS V14.01,2013-05-12 13:05:00,
2013-05-12 09:06:00,72.9,71.7,29.99,West,261,6.0,8.0,96,0.00,,BKN035,0.01,VWS V14.01,2013-05-12 13:06:00,
2013-05-12 09:10:00,73.3,71.8,29.99,WSW,256,0.0,8.0,95,0.00,,BKN035,0.01,VWS V14.01,2013-05-12 13:10:00,
2013-05-12 09:11:00,73.5,72.3,29.99,WSW,257,0.0,8.0,96,0.00,,BKN035,0.01,VWS V14.01,2013-05-12 13:11:00,
2013-05-12 09:12:00,73.5,72.0,29.99,West,260,0.0,8.0,95,0.00,,BKN035,0.01,VWS V14.01,2013-05-12 13:12:00,
2013-05-12 09:15:00,73.9,72.4,29.99,WSW,258,0.0,8.0,95,0.00,,BKN035,0.01,VWS V14.01,2013-05-12 13:15:00,
2013-05-12 09:16:00,74.0,72.5,29.99,WSW,257,0.0,8.0,95,0.00,,BKN035,0.01,VWS V14.01,2013-05-12 13:16:00,
2013-05-12 09:17:00,74.2,72.7,29.99,WSW,257,0.0,8.0,95,0.00,,BKN035,0.01,VWS V14.01,2013-05-12 13:17:00,
2013-05-12 09:20:00,74.6,73.1,29.98,WSW,257,0.0,8.0,95,0.00,,BKN035,0.01,VWS V14.01,2013-05-12 13:20:00,
2013-05-12 09:21:00,74.7,72.9,29.98,WSW,253,0.0,8.0,94,0.00,,BKN035,0.01,VWS V14.01,2013-05-12 13:21:00,
2013-05-12 09:22:00,74.8,73.0,29.98,WSW,244,0.0,8.0,94,0.00,,BKN035,0.01,VWS V14.01,2013-05-12 13:22:00,
2013-05-12 09:25:00,75.1,73.3,29.99,WSW,245,0.0,8.0,94,0.00,,BKN035,0.01,VWS V14.01,2013-05-12 13:25:00,
2013-05-12 09:26:00,75.2,73.4,29.99,WSW,246,0.0,8.0,94,0.00,,BKN035,0.01,VWS V14.01,2013-05-12 13:26:00,
2013-05-12 09:27:00,75.2,73.0,29.98,WSW,246,0.0,8.0,93,0.00,,BKN035,0.01,VWS V14.01,2013-05-12 13:27:00,
2013-05-12 09:30:00,75.3,73.1,29.99,WSW,245,0.0,8.0,93,0.00,,BKN035,0.01,VWS V14.01,2013-05-12 13:30:00,
2013-05-12 09:31:00,75.3,73.1,29.99,SW,214,3.0,8.0,93,0.00,,BKN035,0.01,VWS V14.01,2013-05-12 13:31:00,
2013-05-12 09:32:00,75.3,72.8,29.99,WSW,246,5.0,9.0,92,0.00,,BKN035,0.01,VWS V14.01,2013-05-12 13:32:00,
2013-05-12 09:35:00,75.1,72.6,29.99,West,263,8.0,11.0,92,0.00,,BKN035,0.01,VWS V14.01,2013-05-12 13:35:00,
2013-05-12 09:36:00,75.1,72.6,29.99,WSW,246,10.0,11.0,92,0.00,,BKN035,0.01,VWS V14.01,2013-05-12 13:36:00,
2013-05-12 09:37:00,74.9,72.7,29.99,WSW,244,0.0,11.0,93,0.00,,BKN035,0.01,VWS V14.01,2013-05-12 13:37:00,
2013-05-12 09:40:00,75.2,73.4,29.99,WSW,244,0.0,11.0,94,0.00,,BKN035,0.01,VWS V14.01,2013-05-12 13:40:00,
2013-05-12 09:41:00,75.2,73.4,29.99,WSW,247,8.0,11.0,94,0.00,,BKN035,0.01,VWS V14.01,2013-05-12 13:41:00,
2013-05-12 09:42:00,75.2,73.4,29.99,WSW,252,6.0,11.0,94,0.00,,BKN035,0.01,VWS V14.01,2013-05-12 13:42:00,
2013-05-12 09:43:00,75.2,73.0,29.99,WSW,249,0.0,11.0,93,0.00,,BKN035,0.01,VWS V14.01,2013-05-12 13:43:00,
2013-05-12 09:45:00,75.1,72.9,29.99,WSW,250,0.0,11.0,93,0.00,,BKN035,0.01,VWS V14.01,2013-05-12 13:45:00,
2013-05-12 09:47:00,75.1,72.9,29.99,WSW,246,0.0,11.0,93,0.00,,BKN035,0.01,VWS V14.01,2013-05-12 13:47:00,
2013-05-12 09:48:00,75.0,72.8,29.99,WSW,244,0.0,11.0,93,0.00,,BKN035,0.01,VWS V14.01,2013-05-12 13:48:00,
2013-05-12 09:50:00,74.9,72.7,29.99,SW,214,5.0,11.0,93,0.00,,BKN035,0.01,VWS V14.01,2013-05-12 13:50:00,
2013-05-12 09:52:00,74.9,72.7,29.99,SW,228,0.0,11.0,93,0.00,,BKN035,0.01,VWS V14.01,2013-05-12 13:52:00,
2013-05-12 09:54:00,74.9,72.7,29.99,WSW,240,5.0,11.0,93,0.00,,BKN035,0.01,VWS V14.01,2013-05-12 13:54:00,
2013-05-12 09:55:00,75.0,72.8,29.99,WSW,240,0.0,11.0,93,0.00,,BKN035,0.01,VWS V14.01,2013-05-12 13:55:00,
2013-05-12 09:57:00,75.1,72.9,29.99,WSW,240,0.0,11.0,93,0.00,,BKN035,0.01,VWS V14.01,2013-05-12 13:57:00,
2013-05-12 09:58:00,75.2,73.0,29.99,WSW,242,3.0,11.0,93,0.00,,BKN035,0.01,VWS V14.01,2013-05-12 13:58:00,
2013-05-12 09:59:00,75.3,73.1,29.99,WSW,246,9.0,11.0,93,0.00,,BKN035,0.01,VWS V14.01,2013-05-12 13:59:00,
2013-05-12 10:00:00,75.5,73.0,29.99,WSW,245,0.0,11.0,92,0.00,,BKN035,0.01,VWS V14.01,2013-05-12 14:00:00,
2013-05-12 10:02:00,75.6,72.8,29.99,West,271,1.0,13.0,91,0.00,,BKN035,0.01,VWS V14.01,2013-05-12 14:02:00,
2013-05-12 10:03:00,75.7,73.2,29.99,West,269,0.0,13.0,92,0.00,,BKN035,0.01,VWS V14.01,2013-05-12 14:03:00,
2013-05-12 10:04:00,75.9,73.4,29.99,West,267,0.0,13.0,92,0.00,,BKN035,0.01,VWS V14.01,2013-05-12 14:04:00,
2013-05-12 10:06:00,76.2,73.7,29.99,WSW,248,0.0,13.0,92,0.00,,BKN035,0.01,VWS V14.01,2013-05-12 14:06:00,
2013-05-12 10:07:00,76.5,73.3,29.99,SW,223,0.0,13.0,90,0.00,,BKN035,0.01,VWS V14.01,2013-05-12 14:07:00,
2013-05-12 10:08:00,76.6,73.4,29.99,SW,220,7.0,13.0,90,0.00,,BKN035,0.01,VWS V14.01,2013-05-12 14:08:00,
2013-05-12 10:09:00,76.7,73.2,29.99,WSW,239,3.0,13.0,89,0.00,,BKN035,0.01,VWS V14.01,2013-05-12 14:09:00,
2013-05-12 10:11:00,77.1,73.6,29.99,WSW,237,0.0,13.0,89,0.00,,BKN035,0.01,VWS V14.01,2013-05-12 14:11:00,
2013-05-12 10:12:00,77.3,73.5,29.99,West,265,7.0,14.0,88,0.00,,BKN035,0.01,VWS V14.01,2013-05-12 14:12:00,
2013-05-12 10:13:00,77.3,73.5,29.99,WSW,241,4.0,14.0,88,0.00,,BKN035,0.01,VWS V14.01,2013-05-12 14:13:00,
2013-05-12 10:14:00,77.4,73.6,29.99,WSW,245,0.0,14.0,88,0.00,,BKN035,0.01,VWS V14.01,2013-05-12 14:14:00,
2013-05-12 10:16:00,77.3,73.1,29.99,WSW,252,0.0,14.0,87,0.00,,BKN035,0.01,VWS V14.01,2013-05-12 14:16:00,
2013-05-12 10:17:00,77.4,73.2,29.99,WSW,256,0.0,14.0,87,0.00,,BKN035,0.01,VWS V14.01,2013-05-12 14:17:00,
2013-05-12 10:18:00,77.4,73.2,29.99,WSW,254,0.0,14.0,87,0.00,,BKN035,0.01,VWS V14.01,2013-05-12 14:18:00,
2013-05-12 10:19:00,77.5,73.3,29.99,West,269,8.0,14.0,87,0.00,,BKN035,0.01,VWS V14.01,2013-05-12 14:19:00,
2013-05-12 10:21:00,77.6,73.1,29.99,WSW,248,0.0,14.0,86,0.00,,BKN035,0.01,VWS V14.01,2013-05-12 14:21:00,
2013-05-12 10:23:00,77.7,73.5,29.99,WSW,248,0.0,14.0,87,0.00,,BKN035,0.01,VWS V14.01,2013-05-12 14:23:00,
2013-05-12 10:24:00,77.9,73.7,29.99,West,265,0.0,14.0,87,0.00,,BKN035,0.01,VWS V14.01,2013-05-12 14:24:00,
2013-05-12 10:26:00,78.2,73.7,29.99,WSW,257,2.0,14.0,86,0.00,,BKN035,0.01,VWS V14.01,2013-05-12 14:26:00,
2013-05-12 10:28:00,78.3,73.4,29.99,WSW,243,2.0,14.0,85,0.00,,BKN035,0.01,VWS V14.01,2013-05-12 14:28:00,
2013-05-12 10:29:00,78.4,73.2,29.99,WSW,246,4.0,14.0,84,0.00,,BKN035,0.01,VWS V14.01,2013-05-12 14:29:00,
2013-05-12 10:31:00,78.5,73.3,29.99,WSW,245,0.0,14.0,84,0.00,,BKN035,0.01,VWS V14.01,2013-05-12 14:31:00,
2013-05-12 10:33:00,78.6,73.4,29.99,WSW,256,0.0,14.0,84,0.00,,BKN035,0.01,VWS V14.01,2013-05-12 14:33:00,
2013-05-12 10:34:00,78.7,73.5,29.99,WSW,241,0.0,14.0,84,0.00,,BKN035,0.01,VWS V14.01,2013-05-12 14:34:00,
2013-05-12 10:36:00,78.7,73.1,29.99,WSW,248,0.0,14.0,83,0.00,,BKN035,0.01,VWS V14.01,2013-05-12 14:36:00,
2013-05-12 10:38:00,78.9,73.3,29.99,WSW,239,0.0,14.0,83,0.00,,BKN035,0.01,VWS V14.01,2013-05-12 14:38:00,
2013-05-12 10:39:00,78.9,73.3,29.99,WSW,240,0.0,14.0,83,0.00,,BKN035,0.01,VWS V14.01,2013-05-12 14:39:00,
2013-05-12 10:41:00,79.1,73.1,29.99,West,259,0.0,14.0,82,0.00,,BKN035,0.01,VWS V14.01,2013-05-12 14:41:00,
2013-05-12 10:43:00,79.2,73.2,29.99,WSW,252,6.0,14.0,82,0.00,,BKN035,0.01,VWS V14.01,2013-05-12 14:43:00,
2013-05-12 10:44:00,79.1,73.1,29.99,WNW,288,3.0,14.0,82,0.00,,BKN035,0.01,VWS V14.01,2013-05-12 14:44:00,
2013-05-12 10:46:00,79.0,73.4,29.99,West,271,0.0,14.0,83,0.00,,BKN035,0.01,VWS V14.01,2013-05-12 14:46:00,
2013-05-12 10:49:00,79.2,73.6,29.99,West,280,0.0,14.0,83,0.00,,BKN035,0.01,VWS V14.01,2013-05-12 14:49:00,
2013-05-12 10:50:00,79.5,74.2,29.99,West,271,0.0,14.0,84,0.00,,BKN035,0.01,VWS V14.01,2013-05-12 14:50:00,
2013-05-12 10:51:00,79.7,73.7,29.99,WSW,240,0.0,14.0,82,0.00,,BKN035,0.01,VWS V14.01,2013-05-12 14:51:00,
2013-05-12 10:53:00,80.0,74.0,29.99,WSW,244,0.0,14.0,82,0.00,,BKN035,0.01,VWS V14.01,2013-05-12 14:53:00,
2013-05-12 10:54:00,80.0,74.0,29.99,WSW,244,0.0,14.0,82,0.00,,BKN035,0.01,VWS V14.01,2013-05-12 14:54:00,
2013-05-12 10:55:00,80.0,74.0,29.99,WSW,246,0.0,14.0,82,0.00,,BKN035,0.01,VWS V14.01,2013-05-12 14:55:00,
2013-05-12 10:57:00,79.9,73.6,29.99,West,263,0.0,14.0,81,0.00,,BKN035,0.01,VWS V14.01,2013-05-12 14:57:00,
2013-05-12 10:58:00,79.7,73.4,29.99,West,267,0.0,14.0,81,0.00,,BKN035,0.01,VWS V14.01,2013-05-12 14:58:00,
2013-05-12 10:59:00,79.6,72.9,29.99,WSW,254,2.0,14.0,80,0.00,,BKN035,0.01,VWS V14.01,2013-05-12 14:59:00,
2013-05-12 11:00:00,79.5,72.8,29.99,SW,232,0.0,14.0,80,0.00,,BKN035,0.01,VWS V14.01,2013-05-12 15:00:00,
2013-05-12 11:02:00,79.5,73.2,29.99,WSW,250,0.0,0.0,81,0.00,,BKN035,0.01,VWS V14.01,2013-05-12 15:02:00,
2013-05-12 11:04:00,79.6,72.9,29.99,West,259,0.0,10.0,80,0.00,,BKN035,0.01,VWS V14.01,2013-05-12 15:04:00,
2013-05-12 11:05:00,79.7,73.4,29.99,West,271,0.0,10.0,81,0.00,,BKN035,0.01,VWS V14.01,2013-05-12 15:05:00,
2013-05-12 11:07:00,80.0,72.5,30.00,West,279,0.0,10.0,78,0.00,,BKN035,0.01,VWS V14.01,2013-05-12 15:07:00,
2013-05-12 11:09:00,80.1,73.0,29.99,WSW,256,0.0,11.0,79,0.00,,BKN035,0.01,VWS V14.01,2013-05-12 15:09:00,
2013-05-12 11:10:00,80.1,73.0,29.99,West,273,0.0,11.0,79,0.00,,BKN035,0.01,VWS V14.01,2013-05-12 15:10:00,
2013-05-12 11:12:00,80.0,72.9,29.99,WSW,238,3.0,11.0,79,0.00,,BKN035,0.01,VWS V14.01,2013-05-12 15:12:00,
2013-05-12 11:14:00,80.1,73.4,29.99,WSW,240,2.0,11.0,80,0.00,,BKN035,0.01,VWS V14.01,2013-05-12 15:14:00,
2013-05-12 11:15:00,80.1,73.4,29.99,WSW,248,0.0,11.0,80,0.00,,BKN035,0.01,VWS V14.01,2013-05-12 15:15:00,
2013-05-12 11:17:00,80.4,73.7,29.99,WSW,248,6.0,11.0,80,0.00,,BKN035,0.01,VWS V14.01,2013-05-12 15:17:00,
2013-05-12 11:19:00,80.4,73.3,29.99,SW,229,0.0,11.0,79,0.00,,BKN035,0.01,VWS V14.01,2013-05-12 15:19:00,
2013-05-12 11:20:00,80.5,73.4,29.99,SW,229,0.0,11.0,79,0.00,,BKN035,0.01,VWS V14.01,2013-05-12 15:20:00,
2013-05-12 11:21:00,80.6,73.5,29.99,SW,228,0.0,11.0,79,0.00,,BKN035,0.01,VWS V14.01,2013-05-12 15:21:00,
2013-05-12 11:22:00,80.9,73.0,29.99,West,266,0.0,11.0,77,0.00,,BKN035,0.01,VWS V14.01,2013-05-12 15:22:00,
2013-05-12 11:24:00,81.1,73.6,29.99,WSW,240,0.0,11.0,78,0.00,,BKN035,0.01,VWS V14.01,2013-05-12 15:24:00,
2013-05-12 11:25:00,81.1,73.6,29.99,WSW,240,0.0,11.0,78,0.00,,BKN035,0.01,VWS V14.01,2013-05-12 15:25:00,
2013-05-12 11:26:00,81.2,73.3,29.99,WSW,240,2.0,11.0,77,0.00,,BKN035,0.01,VWS V14.01,2013-05-12 15:26:00,
2013-05-12 11:27:00,81.3,73.4,29.99,SW,219,0.0,11.0,77,0.00,,BKN035,0.01,VWS V14.01,2013-05-12 15:27:00,
2013-05-12 11:30:00,81.3,72.6,29.99,West,278,6.0,12.0,75,0.00,,BKN035,0.01,VWS V14.01,2013-05-12 15:30:00,
2013-05-12 11:31:00,81.3,72.6,29.99,WSW,238,6.0,12.0,75,0.00,,BKN035,0.01,VWS V14.01,2013-05-12 15:31:00,
2013-05-12 11:32:00,81.2,72.9,29.99,WSW,244,0.0,12.0,76,0.00,,BKN035,0.01,VWS V14.01,2013-05-12 15:32:00,
2013-05-12 11:35:00,81.5,74.0,29.99,WSW,244,0.0,12.0,78,0.00,,BKN035,0.01,VWS V14.01,2013-05-12 15:35:00,
2013-05-12 11:36:00,81.6,72.9,29.99,WSW,253,9.0,12.0,75,0.00,,BKN035,0.01,VWS V14.01,2013-05-12 15:36:00,
2013-05-12 11:37:00,81.8,73.5,29.99,WSW,241,5.0,12.0,76,0.00,,BKN035,0.01,VWS V14.01,2013-05-12 15:37:00,
2013-05-12 11:40:00,82.1,74.2,29.99,WSW,257,0.0,12.0,77,0.00,,BKN035,0.01,VWS V14.01,2013-05-12 15:40:00,
2013-05-12 11:41:00,82.2,73.9,29.99,WSW,257,0.0,12.0,76,0.00,,BKN035,0.01,VWS V14.01,2013-05-12 15:41:00,
2013-05-12 11:43:00,82.7,74.0,29.99,West,259,0.0,12.0,75,0.00,,BKN035,0.01,VWS V14.01,2013-05-12 15:43:00,
2013-05-12 11:45:00,82.4,72.5,29.99,NW,315,0.0,12.0,72,0.00,,BKN035,0.01,VWS V14.01,2013-05-12 15:45:00,
2013-05-12 11:46:00,82.3,72.4,29.99,West,281,0.0,12.0,72,0.00,,BKN035,0.01,VWS V14.01,2013-05-12 15:46:00,
2013-05-12 11:47:00,82.2,72.3,29.99,West,268,1.0,12.0,72,0.00,,BKN035,0.01,VWS V14.01,2013-05-12 15:47:00,
2013-05-12 11:48:00,82.3,72.4,29.99,SW,233,1.0,12.0,72,0.00,,BKN035,0.01,VWS V14.01,2013-05-12 15:48:00,
2013-05-12 11:50:00,82.4,71.2,29.99,WNW,288,0.0,12.0,69,0.00,,BKN035,0.01,VWS V14.01,2013-05-12 15:50:00,
2013-05-12 11:51:00,82.5,71.3,29.99,WNW,284,0.0,12.0,69,0.00,,BKN035,0.01,VWS V14.01,2013-05-12 15:51:00,
2013-05-12 11:52:00,82.5,71.7,29.99,WNW,303,0.0,13.0,70,0.00,,BKN035,0.01,VWS V14.01,2013-05-12 15:52:00,
2013-05-12 11:53:00,82.5,71.3,29.99,WSW,257,2.0,13.0,69,0.00,,BKN035,0.01,VWS V14.01,2013-05-12 15:53:00,
2013-05-12 11:56:00,82.5,71.7,29.99,WSW,240,4.0,13.0,70,0.00,,BKN035,0.01,VWS V14.01,2013-05-12 15:56:00,
2013-05-12 11:57:00,82.6,71.4,29.99,SW,236,4.0,13.0,69,0.00,,BKN035,0.01,VWS V14.01,2013-05-12 15:57:00,
2013-05-12 11:58:00,82.7,71.1,29.99,WSW,237,0.0,13.0,68,0.00,,BKN035,0.01,VWS V14.01,2013-05-12 15:58:00,
2013-05-12 12:00:00,83.0,70.9,29.99,West,261,5.0,13.0,67,0.00,,BKN035,0.01,VWS V14.01,2013-05-12 16:00:00,
2013-05-12 12:01:00,83.0,70.9,29.99,West,263,0.0,5.0,67,0.00,,BKN035,0.01,VWS V14.01,2013-05-12 16:01:00,
2013-05-12 12:02:00,83.2,72.0,29.98,SW,232,5.0,6.0,69,0.00,,BKN035,0.01,VWS V14.01,2013-05-12 16:02:00,
2013-05-12 12:03:00,83.2,71.1,29.98,WSW,239,0.0,6.0,67,0.00,,BKN035,0.01,VWS V14.01,2013-05-12 16:03:00,
2013-05-12 12:06:00,83.4,71.7,29.98,WSW,244,0.0,6.0,68,0.00,,BKN035,0.01,VWS V14.01,2013-05-12 16:06:00,
2013-05-12 12:07:00,83.5,71.8,29.98,WSW,244,0.0,6.0,68,0.00,,BKN035,0.01,VWS V14.01,2013-05-12 16:07:00,
2013-05-12 12:08:00,83.9,72.7,29.98,WSW,246,0.0,6.0,69,0.00,,BKN035,0.01,VWS V14.01,2013-05-12 16:08:00,
2013-05-12 12:11:00,84.4,72.2,29.98,WSW,248,0.0,6.0,67,0.00,,BKN035,0.01,VWS V14.01,2013-05-12 16:11:00,
2013-05-12 12:12:00,84.5,71.9,29.98,WSW,250,0.0,6.0,66,0.00,,BKN035,0.01,VWS V14.01,2013-05-12 16:12:00,
2013-05-12 12:13:00,84.7,71.2,29.98,WSW,239,0.0,9.0,64,0.00,,BKN035,0.01,VWS V14.01,2013-05-12 16:13:00,
2013-05-12 12:16:00,84.8,71.3,29.98,WSW,242,0.0,9.0,64,0.00,,BKN035,0.01,VWS V14.01,2013-05-12 16:16:00,
2013-05-12 12:17:00,85.0,71.5,29.98,WSW,241,0.0,9.0,64,0.00,,BKN035,0.01,VWS V14.01,2013-05-12 16:17:00,
2013-05-12 12:19:00,85.3,71.3,29.98,West,263,0.0,9.0,63,0.00,,BKN035,0.01,VWS V14.01,2013-05-12 16:19:00,
2013-05-12 12:21:00,85.3,70.8,29.99,NW,309,6.0,9.0,62,0.00,,BKN035,0.01,VWS V14.01,2013-05-12 16:21:00,
2013-05-12 12:22:00,85.1,69.7,29.99,WNW,295,0.0,10.0,60,0.00,,BKN035,0.01,VWS V14.01,2013-05-12 16:22:00,
2013-05-12 12:24:00,84.9,70.0,29.98,WSW,256,1.0,10.0,61,0.00,,BKN035,0.01,VWS V14.01,2013-05-12 16:24:00,
2013-05-12 12:26:00,84.7,70.7,29.98,SW,226,0.0,10.0,63,0.00,,BKN035,0.01,VWS V14.01,2013-05-12 16:26:00,
2013-05-12 12:27:00,84.5,70.1,29.98,SW,232,0.0,10.0,62,0.00,,BKN035,0.01,VWS V14.01,2013-05-12 16:27:00,
2013-05-12 12:29:00,84.4,70.4,29.98,SW,227,0.0,10.0,63,0.00,,BKN035,0.01,VWS V14.01,2013-05-12 16:29:00,
2013-05-12 12:31:00,84.6,70.6,29.98,SW,236,0.0,10.0,63,0.00,,BKN035,0.01,VWS V14.01,2013-05-12 16:31:00,
2013-05-12 12:32:00,84.7,70.7,29.97,WSW,237,0.0,10.0,63,0.00,,BKN035,0.01,VWS V14.01,2013-05-12 16:32:00,
2013-05-12 12:33:00,85.0,70.1,29.97,WSW,241,0.0,10.0,61,0.00,,BKN035,0.01,VWS V14.01,2013-05-12 16:33:00,
2013-05-12 12:34:00,85.2,70.2,29.97,WSW,242,0.0,10.0,61,0.00,,BKN035,0.01,VWS V14.01,2013-05-12 16:34:00,
2013-05-12 12:36:00,85.5,70.0,29.98,WSW,241,0.0,10.0,60,0.00,,BKN035,0.01,VWS V14.01,2013-05-12 16:36:00,
2013-05-12 12:37:00,85.5,70.0,29.97,WSW,241,0.0,10.0,60,0.00,,BKN035,0.01,VWS V14.01,2013-05-12 16:37:00,
2013-05-12 12:38:00,85.8,70.3,29.97,WSW,246,0.0,10.0,60,0.00,,BKN035,0.01,VWS V14.01,2013-05-12 16:38:00,
2013-05-12 12:40:00,85.9,70.4,29.97,WSW,246,0.0,10.0,60,0.00,,BKN035,0.01,VWS V14.01,2013-05-12 16:40:00,
2013-05-12 12:42:00,85.8,70.8,29.97,WSW,256,0.0,10.0,61,0.00,,BKN035,0.01,VWS V14.01,2013-05-12 16:42:00,
2013-05-12 12:43:00,85.7,70.2,29.97,West,281,0.0,10.0,60,0.00,,BKN035,0.01,VWS V14.01,2013-05-12 16:43:00,
2013-05-12 12:45:00,85.6,70.1,29.97,West,281,0.0,10.0,60,0.00,,BKN035,0.01,VWS V14.01,2013-05-12 16:45:00,
2013-05-12 12:47:00,85.7,70.2,29.97,West,277,0.0,10.0,60,0.00,,BKN035,0.01,VWS V14.01,2013-05-12 16:47:00,
2013-05-12 12:48:00,85.8,70.3,29.97,West,265,0.0,10.0,60,0.00,,BKN035,0.01,VWS V14.01,2013-05-12 16:48:00,
2013-05-12 12:50:00,86.0,69.0,29.97,West,265,0.0,10.0,57,0.00,,BKN035,0.01,VWS V14.01,2013-05-12 16:50:00,
2013-05-12 12:52:00,86.2,71.2,29.97,West,271,0.0,10.0,61,0.00,,BKN035,0.01,VWS V14.01,2013-05-12 16:52:00,
2013-05-12 12:53:00,86.3,70.3,29.97,WSW,256,0.0,10.0,59,0.00,,BKN035,0.01,VWS V14.01,2013-05-12 16:53:00,
2013-05-12 12:54:00,86.3,70.3,29.97,WSW,244,0.0,10.0,59,0.00,,BKN035,0.01,VWS V14.01,2013-05-12 16:54:00,
2013-05-12 12:55:00,86.4,70.9,29.96,WSW,242,0.0,10.0,60,0.00,,BKN035,0.01,VWS V14.01,2013-05-12 16:55:00,
2013-05-12 12:57:00,86.6,70.6,29.96,WSW,245,0.0,10.0,59,0.00,,BKN035,0.01,VWS V14.01,2013-05-12 16:57:00,
2013-05-12 12:58:00,86.7,70.2,29.96,WSW,254,0.0,11.0,58,0.00,,BKN035,0.01,VWS V14.01,2013-05-12 16:58:00,
2013-05-12 12:59:00,86.7,70.2,29.96,SW,227,0.0,11.0,58,0.00,,BKN035,0.01,VWS V14.01,2013-05-12 16:59:00,
2013-05-12 13:00:00,86.6,70.1,29.96,WSW,246,0.0,11.0,58,0.00,,BKN035,0.01,VWS V14.01,2013-05-12 17:00:00,
2013-05-12 13:02:00,86.5,71.0,29.96,WSW,245,3.0,3.0,60,0.00,,BKN035,0.01,VWS V14.01,2013-05-12 17:02:00,
2013-05-12 13:03:00,86.4,69.9,29.96,West,262,0.0,8.0,58,0.00,,BKN035,0.01,VWS V14.01,2013-05-12 17:03:00,
2013-05-12 13:04:00,86.3,69.8,29.96,WSW,250,0.0,8.0,58,0.00,,BKN035,0.01,VWS V14.01,2013-05-12 17:04:00,
2013-05-12 13:05:00,86.2,70.7,29.96,SW,232,0.0,8.0,60,0.00,,BKN035,0.01,VWS V14.01,2013-05-12 17:05:00,
2013-05-12 13:07:00,86.0,71.0,29.95,WSW,246,7.0,8.0,61,0.00,,BKN035,0.01,VWS V14.01,2013-05-12 17:07:00,
2013-05-12 13:08:00,86.0,71.0,29.95,West,259,0.0,8.0,61,0.00,,BKN035,0.01,VWS V14.01,2013-05-12 17:08:00,
2013-05-12 13:09:00,85.9,70.4,29.95,West,272,0.0,8.0,60,0.00,,BKN035,0.01,VWS V14.01,2013-05-12 17:09:00,
2013-05-12 13:10:00,85.8,69.3,29.95,West,273,0.0,8.0,58,0.00,,BKN035,0.01,VWS V14.01,2013-05-12 17:10:00,
2013-05-12 13:12:00,85.7,70.2,29.95,WSW,254,0.0,11.0,60,0.00,,BKN035,0.01,VWS V14.01,2013-05-12 17:12:00,
2013-05-12 13:13:00,85.6,70.1,29.95,WSW,250,4.0,11.0,60,0.00,,BKN035,0.01,VWS V14.01,2013-05-12 17:13:00,
2013-05-12 13:14:00,85.6,70.6,29.95,WSW,244,0.0,11.0,61,0.00,,BKN035,0.01,VWS V14.01,2013-05-12 17:14:00,
2013-05-12 13:15:00,85.6,70.6,29.96,WSW,244,0.0,11.0,61,0.00,,BKN035,0.01,VWS V14.01,2013-05-12 17:15:00,
2013-05-12 13:17:00,85.7,71.2,29.96,WSW,249,0.0,11.0,62,0.00,,BKN035,0.01,VWS V14.01,2013-05-12 17:17:00,
2013-05-12 13:18:00,85.7,71.2,29.95,WSW,253,4.0,11.0,62,0.00,,BKN035,0.01,VWS V14.01,2013-05-12 17:18:00,
2013-05-12 13:19:00,85.8,71.3,29.95,WSW,250,0.0,11.0,62,0.00,,BKN035,0.01,VWS V14.01,2013-05-12 17:19:00,
2013-05-12 13:20:00,85.8,71.3,29.95,WSW,250,0.0,11.0,62,0.00,,BKN035,0.01,VWS V14.01,2013-05-12 17:20:00,
2013-05-12 13:22:00,85.8,70.8,29.95,SW,226,0.0,11.0,61,0.00,,BKN035,0.01,VWS V14.01,2013-05-12 17:22:00,
2013-05-12 13:23:00,85.8,70.8,29.95,SW,226,0.0,11.0,61,0.00,,BKN035,0.01,VWS V14.01,2013-05-12 17:23:00,
2013-05-12 13:24:00,85.7,71.2,29.95,SW,234,9.0,11.0,62,0.00,,BKN035,0.01,VWS V14.01,2013-05-12 17:24:00,
2013-05-12 13:25:00,85.7,71.2,29.95,SW,235,2.0,11.0,62,0.00,,BKN035,0.01,VWS V14.01,2013-05-12 17:25:00,
2013-05-12 13:27:00,85.8,70.8,29.95,SW,234,0.0,11.0,61,0.00,,BKN035,0.01,VWS V14.01,2013-05-12 17:27:00,
2013-05-12 13:28:00,85.8,70.8,29.95,SW,235,0.0,11.0,61,0.00,,BKN035,0.01,VWS V14.01,2013-05-12 17:28:00,
2013-05-12 13:29:00,85.8,70.3,29.95,SW,235,0.0,11.0,60,0.00,,BKN035,0.01,VWS V14.01,2013-05-12 17:29:00,
2013-05-12 13:30:00,85.9,70.9,29.95,WSW,250,7.0,11.0,61,0.00,,BKN035,0.01,VWS V14.01,2013-05-12 17:30:00,
2013-05-12 13:31:00,85.9,70.9,29.95,WSW,252,0.0,11.0,61,0.00,,BKN035,0.01,VWS V14.01,2013-05-12 17:31:00,
2013-05-12 13:33:00,86.1,70.6,29.95,WSW,248,4.0,11.0,60,0.00,,BKN035,0.01,VWS V14.01,2013-05-12 17:33:00,
2013-05-12 13:34:00,86.0,69.5,29.95,SW,226,0.0,11.0,58,0.00,,BKN035,0.01,VWS V14.01,2013-05-12 17:34:00,
2013-05-12 13:35:00,85.9,69.9,29.95,SW,227,0.0,11.0,59,0.00,,BKN035,0.01,VWS V14.01,2013-05-12 17:35:00,
2013-05-12 13:36:00,85.9,70.4,29.95,SW,227,0.0,11.0,60,0.00,,BKN035,0.01,VWS V14.01,2013-05-12 17:36:00,
2013-05-12 13:38:00,86.3,71.3,29.95,WSW,245,0.0,11.0,61,0.00,,BKN035,0.01,VWS V14.01,2013-05-12 17:38:00,
2013-05-12 13:39:00,86.5,70.5,29.94,West,261,0.0,11.0,59,0.00,,BKN035,0.01,VWS V14.01,2013-05-12 17:39:00,
2013-05-12 13:40:00,86.7,70.2,29.94,West,261,0.0,11.0,58,0.00,,BKN035,0.01,VWS V14.01,2013-05-12 17:40:00,
2013-05-12 13:41:00,86.8,70.3,29.94,West,262,0.0,11.0,58,0.00,,BKN035,0.01,VWS V14.01,2013-05-12 17:41:00,
2013-05-12 13:43:00,86.8,70.3,29.94,WSW,246,0.0,11.0,58,0.00,,BKN035,0.01,VWS V14.01,2013-05-12 17:43:00,
2013-05-12 13:44:00,86.9,70.4,29.95,WSW,246,0.0,11.0,58,0.00,,BKN035,0.01,VWS V14.01,2013-05-12 17:44:00,
2013-05-12 13:46:00,86.8,70.3,29.94,WSW,246,0.0,11.0,58,0.00,,BKN035,0.01,VWS V14.01,2013-05-12 17:46:00,
2013-05-12 13:48:00,86.9,69.8,29.94,WSW,246,0.0,11.0,57,0.00,,BKN035,0.01,VWS V14.01,2013-05-12 17:48:00,
2013-05-12 13:49:00,86.9,69.3,29.94,West,277,0.0,11.0,56,0.00,,BKN035,0.01,VWS V14.01,2013-05-12 17:49:00,
2013-05-12 13:50:00,86.8,68.7,29.94,WNW,286,0.0,11.0,55,0.00,,BKN035,0.01,VWS V14.01,2013-05-12 17:50:00,
2013-05-12 13:51:00,86.6,68.5,29.94,WNW,286,0.0,11.0,55,0.00,,BKN035,0.01,VWS V14.01,2013-05-12 17:51:00,
2013-05-12 13:54:00,86.4,69.4,29.94,WNW,286,0.0,11.0,57,0.00,,BKN035,0.01,VWS V14.01,2013-05-12 17:54:00,
2013-05-12 13:55:00,86.6,69.6,29.94,West,260,5.0,13.0,57,0.00,,BKN035,0.01,VWS V14.01,2013-05-12 17:55:00,
2013-05-12 13:56:00,86.7,68.6,29.94,SW,234,0.0,13.0,55,0.00,,BKN035,0.01,VWS V14.01,2013-05-12 17:56:00,
2013-05-12 13:59:00,86.8,68.7,29.93,WSW,252,4.0,13.0,55,0.00,,BKN035,0.01,VWS V14.01,2013-05-12 17:59:00,
2013-05-12 14:00:00,86.8,68.7,29.93,WSW,257,0.0,13.0,55,0.00,,BKN035,0.01,VWS V14.01,2013-05-12 18:00:00,
2013-05-12 14:01:00,87.1,69.5,29.94,WSW,257,0.0,0.0,56,0.00,,BKN035,0.01,VWS V14.01,2013-05-12 18:01:00,
2013-05-12 14:04:00,87.7,69.5,29.94,West,265,0.0,6.0,55,0.00,,BKN035,0.01,VWS V14.01,2013-05-12 18:04:00,
2013-05-12 14:05:00,88.0,68.7,29.93,West,279,3.0,10.0,53,0.00,,BKN035,0.01,VWS V14.01,2013-05-12 18:05:00,
2013-05-12 14:06:00,88.0,68.7,29.93,NW,306,0.0,10.0,53,0.00,,BKN035,0.01,VWS V14.01,2013-05-12 18:06:00,
2013-05-12 14:07:00,88.1,68.8,29.93,NW,309,0.0,10.0,53,0.00,,BKN035,0.01,VWS V14.01,2013-05-12 18:07:00,
2013-05-12 14:09:00,88.0,68.7,29.93,West,265,0.0,10.0,53,0.00,,BKN035,0.01,VWS V14.01,2013-05-12 18:09:00,
2013-05-12 14:10:00,88.1,69.9,29.93,WSW,255,0.0,10.0,55,0.00,,BKN035,0.01,VWS V14.01,2013-05-12 18:10:00,
2013-05-12 14:11:00,88.2,69.5,29.93,WSW,255,0.0,10.0,54,0.00,,BKN035,0.01,VWS V14.01,2013-05-12 18:11:00,
2013-05-12 14:12:00,88.3,69.6,29.93,NW,309,4.0,10.0,54,0.00,,BKN035,0.01,VWS V14.01,2013-05-12 18:12:00,
2013-05-12 14:14:00,88.2,68.4,29.93,NW,308,0.0,10.0,52,0.00,,BKN035,0.01,VWS V14.01,2013-05-12 18:14:00,
2013-05-12 14:15:00,88.1,68.3,29.93,SW,227,0.0,10.0,52,0.00,,BKN035,0.01,VWS V14.01,2013-05-12 18:15:00,
2013-05-12 14:16:00,88.0,68.7,29.94,WNW,292,1.0,10.0,53,0.00,,BKN035,0.01,VWS V14.01,2013-05-12 18:16:00,
2013-05-12 14:17:00,88.0,68.7,29.94,NW,321,0.0,10.0,53,0.00,,BKN035,0.01,VWS V14.01,2013-05-12 18:17:00,
2013-05-12 14:19:00,87.8,68.0,29.94,NNW,340,2.0,10.0,52,0.00,,BKN035,0.01,VWS V14.01,2013-05-12 18:19:00,
2013-05-12 14:20:00,87.7,67.9,29.93,NNW,337,0.0,10.0,52,0.00,,BKN035,0.01,VWS V14.01,2013-05-12 18:20:00,
2013-05-12 14:21:00,87.5,68.3,29.93,NW,313,0.0,10.0,53,0.00,,BKN035,0.01,VWS V14.01,2013-05-12 18:21:00,
2013-05-12 14:22:00,87.4,68.2,29.94,West,269,3.0,10.0,53,0.00,,BKN035,0.01,VWS V14.01,2013-05-12 18:22:00,
2013-05-12 14:24:00,87.3,69.2,29.93,WSW,240,1.0,10.0,55,0.00,,BKN035,0.01,VWS V14.01,2013-05-12 18:24:00,
2013-05-12 14:25:00,87.3,69.7,29.93,WSW,240,0.0,10.0,56,0.00,,BKN035,0.01,VWS V14.01,2013-05-12 18:25:00,
2013-05-12 14:26:00,87.3,70.2,29.93,WSW,240,0.0,10.0,57,0.00,,BKN035,0.01,VWS V14.01,2013-05-12 18:26:00,
2013-05-12 14:27:00,87.3,70.2,29.93,WSW,240,2.0,10.0,57,0.00,,BKN035,0.01,VWS V14.01,2013-05-12 18:27:00,
2013-05-12 14:29:00,87.5,69.9,29.93,WSW,242,2.0,10.0,56,0.00,,BKN035,0.01,VWS V14.01,2013-05-12 18:29:00,
2013-05-12 14:30:00,87.6,70.0,29.93,SSW,211,0.0,10.0,56,0.00,,BKN035,0.01,VWS V14.01,2013-05-12 18:30:00,
2013-05-12 14:31:00,88.0,69.8,29.93,West,274,4.0,10.0,55,0.00,,BKN035,0.01,VWS V14.01,2013-05-12 18:31:00,
2013-05-12 14:32:00,88.0,68.7,29.93,West,268,7.0,10.0,53,0.00,,BKN035,0.01,VWS V14.01,2013-05-12 18:32:00,
2013-05-12 14:33:00,88.1,68.3,29.93,WSW,255,3.0,10.0,52,0.00,,BKN035,0.01,VWS V14.01,2013-05-12 18:33:00,
2013-05-12 14:34:00,88.3,68.5,29.92,WNW,285,0.0,10.0,52,0.00,,BKN035,0.01,VWS V14.01,2013-05-12 18:34:00,
2013-05-12 14:35:00,88.5,69.2,29.92,NW,310,6.0,10.0,53,0.00,,BKN035,0.01,VWS V14.01,2013-05-12 18:35:00,
2013-05-12 14:37:00,88.6,68.2,29.93,West,263,5.0,14.0,51,0.00,,BKN035,0.01,VWS V14.01,2013-05-12 18:37:00,
2013-05-12 14:38:00,88.7,68.3,29.92,WNW,282,3.0,14.0,51,0.00,,BKN035,0.01,VWS V14.01,2013-05-12 18:38:00,
2013-05-12 14:39:00,88.8,68.9,29.92,NW,322,0.0,14.0,52,0.00,,BKN035,0.01,VWS V14.01,2013-05-12 18:39:00,
2013-05-12 14:40:00,88.8,68.9,29.92,West,266,11.0,14.0,52,0.00,,BKN035,0.01,VWS V14.01,2013-05-12 18:40:00,
2013-05-12 14:42:00,88.8,67.8,29.93,West,261,1.0,14.0,50,0.00,,BKN035,0.01,VWS V14.01,2013-05-12 18:42:00,
2013-05-12 14:43:00,88.7,68.3,29.93,NW,309,0.0,14.0,51,0.00,,BKN035,0.01,VWS V14.01,2013-05-12 18:43:00,
2013-05-12 14:44:00,88.7,68.3,29.92,West,267,5.0,14.0,51,0.00,,BKN035,0.01,VWS V14.01,2013-05-12 18:44:00,
2013-05-12 14:45:00,88.7,68.3,29.93,WSW,242,0.0,14.0,51,0.00,,BKN035,0.01,VWS V14.01,2013-05-12 18:45:00,
2013-05-12 14:47:00,88.7,67.7,29.92,West,268,2.0,14.0,50,0.00,,BKN035,0.01,VWS V14.01,2013-05-12 18:47:00,
2013-05-12 14:48:00,88.8,67.8,29.92,NW,311,1.0,14.0,50,0.00,,BKN035,0.01,VWS V14.01,2013-05-12 18:48:00,
2013-05-12 14:49:00,88.8,67.8,29.92,WNW,290,0.0,14.0,50,0.00,,BKN035,0.01,VWS V14.01,2013-05-12 18:49:00,
2013-05-12 14:51:00,88.7,68.3,29.92,NNW,334,0.0,14.0,51,0.00,,BKN035,0.01,VWS V14.01,2013-05-12 18:51:00,
2013-05-12 14:52:00,88.8,68.4,29.92,NW,319,0.0,14.0,51,0.00,,BKN035,0.01,VWS V14.01,2013-05-12 18:52:00,
2013-05-12 14:53:00,88.9,69.0,29.92,WNW,294,0.0,14.0,52,0.00,,BKN035,0.01,VWS V14.01,2013-05-12 18:53:00,
2013-05-12 14:54:00,89.0,68.0,29.92,NW,306,3.0,14.0,50,0.00,,BKN035,0.01,VWS V14.01,2013-05-12 18:54:00,
2013-05-12 14:56:00,88.9,68.4,29.92,WNW,290,0.0,14.0,51,0.00,,BKN035,0.01,VWS V14.01,2013-05-12 18:56:00,
2013-05-12 14:57:00,88.9,68.4,29.92,WNW,298,5.0,14.0,51,0.00,,BKN035,0.01,VWS V14.01,2013-05-12 18:57:00,
2013-05-12 14:58:00,88.9,68.4,29.92,WNW,299,1.0,14.0,51,0.00,,BKN035,0.01,VWS V14.01,2013-05-12 18:58:00,
2013-05-12 14:59:00,88.9,68.4,29.92,WNW,300,0.0,14.0,51,0.00,,BKN035,0.01,VWS V14.01,2013-05-12 18:59:00,
2013-05-12 15:00:00,88.9,68.4,29.92,West,267,5.0,14.0,51,0.00,,BKN035,0.01,VWS V14.01,2013-05-12 19:00:00,
2013-05-12 15:01:00,88.9,68.4,29.92,WNW,283,0.0,5.0,51,0.00,,BKN035,0.01,VWS V14.01,2013-05-12 19:01:00,
2013-05-12 15:02:00,88.8,68.4,29.92,NW,306,1.0,7.0,51,0.00,,BKN035,0.01,VWS V14.01,2013-05-12 19:02:00,
2013-05-12 15:03:00,88.8,67.8,29.92,WNW,283,1.0,7.0,50,0.00,,BKN035,0.01,VWS V14.01,2013-05-12 19:03:00,
2013-05-12 15:04:00,88.6,67.6,29.92,WNW,285,0.0,7.0,50,0.00,,BKN035,0.01,VWS V14.01,2013-05-12 19:04:00,
2013-05-12 15:06:00,88.3,67.9,29.92,WNW,302,0.0,7.0,51,0.00,,BKN035,0.01,VWS V14.01,2013-05-12 19:06:00,
2013-05-12 15:07:00,88.2,67.8,29.92,West,264,0.0,7.0,51,0.00,,BKN035,0.01,VWS V14.01,2013-05-12 19:07:00,
2013-05-12 15:08:00,88.2,67.8,29.92,West,264,0.0,7.0,51,0.00,,BKN035,0.01,VWS V14.01,2013-05-12 19:08:00,
2013-05-12 15:09:00,88.1,67.7,29.92,WSW,254,0.0,7.0,51,0.00,,BKN035,0.01,VWS V14.01,2013-05-12 19:09:00,
2013-05-12 15:12:00,88.2,68.4,29.92,West,269,0.0,7.0,52,0.00,,BKN035,0.01,VWS V14.01,2013-05-12 19:12:00,
2013-05-12 15:13:00,88.5,68.6,29.91,West,274,0.0,7.0,52,0.00,,BKN035,0.01,VWS V14.01,2013-05-12 19:13:00,
2013-05-12 15:14:00,88.7,68.8,29.92,WNW,301,1.0,7.0,52,0.00,,BKN035,0.01,VWS V14.01,2013-05-12 19:14:00,
2013-05-12 15:15:00,88.8,68.9,29.92,NW,308,3.0,15.0,52,0.00,,BKN035,0.01,VWS V14.01,2013-05-12 19:15:00,
2013-05-12 15:17:00,88.7,67.7,29.92,NNW,330,4.0,15.0,50,0.00,,BKN035,0.01,VWS V14.01,2013-05-12 19:17:00,
2013-05-12 15:18:00,88.5,67.5,29.92,NNW,344,0.0,15.0,50,0.00,,BKN035,0.01,VWS V14.01,2013-05-12 19:18:00,
2013-05-12 15:19:00,88.3,67.3,29.92,NW,321,9.0,15.0,50,0.00,,BKN035,0.01,VWS V14.01,2013-05-12 19:19:00,
2013-05-12 15:20:00,88.1,67.1,29.92,NW,317,5.0,15.0,50,0.00,,BKN035,0.01,VWS V14.01,2013-05-12 19:20:00,
2013-05-12 15:22:00,87.7,67.3,29.92,NW,318,0.0,15.0,51,0.00,,BKN035,0.01,VWS V14.01,2013-05-12 19:22:00,
2013-05-12 15:23:00,87.7,68.5,29.92,NNW,328,3.0,15.0,53,0.00,,BKN035,0.01,VWS V14.01,2013-05-12 19:23:00,
2013-05-12 15:24:00,87.7,68.5,29.92,NW,317,3.0,15.0,53,0.00,,BKN035,0.01,VWS V14.01,2013-05-12 19:24:00,
2013-05-12 15:25:00,87.9,68.7,29.91,NW,324,0.0,15.0,53,0.00,,BKN035,0.01,VWS V14.01,2013-05-12 19:25:00,
2013-05-12 15:27:00,88.3,69.0,29.91,WNW,302,0.0,15.0,53,0.00,,BKN035,0.01,VWS V14.01,2013-05-12 19:27:00,
2013-05-12 15:28:00,88.5,69.2,29.91,WNW,288,0.0,15.0,53,0.00,,BKN035,0.01,VWS V14.01,2013-05-12 19:28:00,
2013-05-12 15:29:00,88.6,69.3,29.91,WNW,288,0.0,15.0,53,0.00,,BKN035,0.01,VWS V14.01,2013-05-12 19:29:00,
2013-05-12 15:30:00,88.9,69.0,29.91,West,270,0.0,15.0,52,0.00,,BKN035,0.01,VWS V14.01,2013-05-12 19:30:00,
2013-05-12 15:32:00,89.2,68.7,29.91,WNW,290,0.0,15.0,51,0.00,,BKN035,0.01,VWS V14.01,2013-05-12 19:32:00,
2013-05-12 15:33:00,89.1,68.6,29.91,West,267,5.0,15.0,51,0.00,,BKN035,0.01,VWS V14.01,2013-05-12 19:33:00,
2013-05-12 15:34:00,89.0,68.0,29.91,WNW,289,0.0,15.0,50,0.00,,BKN035,0.01,VWS V14.01,2013-05-12 19:34:00,
2013-05-12 15:35:00,88.6,68.2,29.91,WSW,255,2.0,15.0,51,0.00,,BKN035,0.01,VWS V14.01,2013-05-12 19:35:00,
2013-05-12 15:37:00,88.1,68.3,29.92,WSW,237,3.0,15.0,52,0.00,,BKN035,0.01,VWS V14.01,2013-05-12 19:37:00,
2013-05-12 15:38:00,88.0,68.2,29.92,WSW,237,0.0,15.0,52,0.00,,BKN035,0.01,VWS V14.01,2013-05-12 19:38:00,
2013-05-12 15:39:00,88.0,68.7,29.92,WSW,240,4.0,15.0,53,0.00,,BKN035,0.01,VWS V14.01,2013-05-12 19:39:00,
2013-05-12 15:40:00,87.9,68.1,29.92,WSW,238,0.0,15.0,52,0.00,,BKN035,0.01,VWS V14.01,2013-05-12 19:40:00,
2013-05-12 15:42:00,87.9,68.7,29.92,WSW,239,0.0,15.0,53,0.00,,BKN035,0.01,VWS V14.01,2013-05-12 19:42:00,
2013-05-12 15:43:00,87.9,68.7,29.92,WSW,239,0.0,15.0,53,0.00,,BKN035,0.01,VWS V14.01,2013-05-12 19:43:00,
2013-05-12 15:44:00,87.9,68.7,29.91,WSW,239,0.0,15.0,53,0.00,,BKN035,0.01,VWS V14.01,2013-05-12 19:44:00,
2013-05-12 15:45:00,87.9,68.7,29.91,WSW,240,3.0,15.0,53,0.00,,BKN035,0.01,VWS V14.01,2013-05-12 19:45:00,
2013-05-12 15:48:00,87.9,69.2,29.91,West,263,0.0,15.0,54,0.00,,BKN035,0.01,VWS V14.01,2013-05-12 19:48:00,
2013-05-12 15:49:00,88.0,68.7,29.91,West,268,0.0,15.0,53,0.00,,BKN035,0.01,VWS V14.01,2013-05-12 19:49:00,
2013-05-12 15:50:00,88.1,68.8,29.91,NW,313,0.0,15.0,53,0.00,,BKN035,0.01,VWS V14.01,2013-05-12 19:50:00,
2013-05-12 15:51:00,88.2,68.4,29.91,West,275,0.0,15.0,52,0.00,,BKN035,0.01,VWS V14.01,2013-05-12 19:51:00,
2013-05-12 15:53:00,88.0,68.2,29.91,WSW,238,0.0,15.0,52,0.00,,BKN035,0.01,VWS V14.01,2013-05-12 19:53:00,
2013-05-12 15:54:00,87.9,68.7,29.91,SW,234,0.0,15.0,53,0.00,,BKN035,0.01,VWS V14.01,2013-05-12 19:54:00,
2013-05-12 15:55:00,87.8,68.6,29.91,WSW,245,0.0,15.0,53,0.00,,BKN035,0.01,VWS V14.01,2013-05-12 19:55:00,
2013-05-12 15:56:00,87.7,68.5,29.91,West,259,12.0,15.0,53,0.00,,BKN035,0.01,VWS V14.01,2013-05-12 19:56:00,
2013-05-12 15:58:00,87.5,68.3,29.91,WSW,250,0.0,15.0,53,0.00,,BKN035,0.01,VWS V14.01,2013-05-12 19:58:00,
2013-05-12 15:59:00,87.5,68.3,29.91,WSW,252,0.0,15.0,53,0.00,,BKN035,0.01,VWS V14.01,2013-05-12 19:59:00,
2013-05-12 16:00:00,87.7,69.0,29.91,West,263,0.0,15.0,54,0.00,,BKN035,0.01,VWS V14.01,2013-05-12 20:00:00,
2013-05-12 16:01:00,87.8,69.1,29.91,West,271,0.0,0.0,54,0.00,,BKN035,0.01,VWS V14.01,2013-05-12 20:01:00,
2013-05-12 16:03:00,88.2,68.9,29.91,NW,307,0.0,3.0,53,0.00,,BKN035,0.01,VWS V14.01,2013-05-12 20:03:00,
2013-05-12 16:04:00,88.3,69.0,29.91,NW,315,3.0,5.0,53,0.00,,BKN035,0.01,VWS V14.01,2013-05-12 20:04:00,
2013-05-12 16:05:00,88.3,69.0,29.91,NW,322,0.0,8.0,53,0.00,,BKN035,0.01,VWS V14.01,2013-05-12 20:05:00,
2013-05-12 16:06:00,88.3,69.0,29.91,NW,322,0.0,8.0,53,0.00,,BKN035,0.01,VWS V14.01,2013-05-12 20:06:00,
2013-05-12 16:08:00,88.3,69.0,29.91,NW,308,4.0,8.0,53,0.00,,BKN035,0.01,VWS V14.01,2013-05-12 20:08:00,
2013-05-12 16:09:00,88.3,69.0,29.91,NW,309,5.0,8.0,53,0.00,,BKN035,0.01,VWS V14.01,2013-05-12 20:09:00,
2013-05-12 16:10:00,88.2,68.9,29.91,NW,311,0.0,8.0,53,0.00,,BKN035,0.01,VWS V14.01,2013-05-12 20:10:00,
2013-05-12 16:11:00,88.2,69.5,29.91,NW,311,0.0,8.0,54,0.00,,BKN035,0.01,VWS V14.01,2013-05-12 20:11:00,
2013-05-12 16:13:00,88.2,68.9,29.91,West,261,0.0,8.0,53,0.00,,BKN035,0.01,VWS V14.01,2013-05-12 20:13:00,
2013-05-12 16:14:00,88.2,69.5,29.91,West,267,0.0,8.0,54,0.00,,BKN035,0.01,VWS V14.01,2013-05-12 20:14:00,
2013-05-12 16:15:00,88.1,68.8,29.91,NW,318,0.0,8.0,53,0.00,,BKN035,0.01,VWS V14.01,2013-05-12 20:15:00,
2013-05-12 16:16:00,88.1,68.8,29.91,NW,314,0.0,8.0,53,0.00,,BKN035,0.01,VWS V14.01,2013-05-12 20:16:00,
2013-05-12 16:18:00,87.9,68.7,29.91,NW,306,8.0,10.0,53,0.00,,BKN035,0.01,VWS V14.01,2013-05-12 20:18:00,
2013-05-12 16:19:00,87.7,68.5,29.90,NW,326,8.0,10.0,53,0.00,,BKN035,0.01,VWS V14.01,2013-05-12 20:19:00,
2013-05-12 16:20:00,87.5,68.3,29.90,NW,325,6.0,10.0,53,0.00,,BKN035,0.01,VWS V14.01,2013-05-12 20:20:00,
2013-05-12 16:21:00,87.4,68.7,29.91,NW,321,4.0,10.0,54,0.00,,BKN035,0.01,VWS V14.01,2013-05-12 20:21:00,
2013-05-12 16:23:00,87.1,68.4,29.91,NW,313,4.0,10.0,54,0.00,,BKN035,0.01,VWS V14.01,2013-05-12 20:23:00,
2013-05-12 16:25:00,87.1,69.0,29.91,North,355,9.0,10.0,55,0.00,,BKN035,0.01,VWS V14.01,2013-05-12 20:25:00,
2013-05-12 16:26:00,87.1,68.4,29.91,North,355,3.0,10.0,54,0.00,,BKN035,0.01,VWS V14.01,2013-05-12 20:26:00,
2013-05-12 16:29:00,87.2,69.1,29.90,NNW,345,8.0,10.0,55,0.00,,BKN035,0.01,VWS V14.01,2013-05-12 20:29:00,
2013-05-12 16:30:00,87.2,69.1,29.90,NW,321,5.0,10.0,55,0.00,,BKN035,0.01,VWS V14.01,2013-05-12 20:30:00,
2013-05-12 16:31:00,87.3,69.2,29.90,NNW,341,7.0,10.0,55,0.00,,BKN035,0.01,VWS V14.01,2013-05-12 20:31:00,
2013-05-12 16:34:00,87.5,68.8,29.90,NW,307,7.0,10.0,54,0.00,,BKN035,0.01,VWS V14.01,2013-05-12 20:34:00,
2013-05-12 16:35:00,87.5,68.8,29.91,NW,306,6.0,10.0,54,0.00,,BKN035,0.01,VWS V14.01,2013-05-12 20:35:00,
2013-05-12 16:36:00,87.5,68.8,29.90,NW,304,4.0,10.0,54,0.00,,BKN035,0.01,VWS V14.01,2013-05-12 20:36:00,
2013-05-12 16:37:00,87.6,68.9,29.90,NW,313,9.0,10.0,54,0.00,,BKN035,0.01,VWS V14.01,2013-05-12 20:37:00,
2013-05-12 16:39:00,87.7,68.5,29.90,NW,309,4.0,10.0,53,0.00,,BKN035,0.01,VWS V14.01,2013-05-12 20:39:00,
2013-05-12 16:40:00,87.7,68.5,29.90,NW,304,0.0,10.0,53,0.00,,BKN035,0.01,VWS V14.01,2013-05-12 20:40:00,
2013-05-12 16:41:00,87.7,69.0,29.90,West,262,0.0,10.0,54,0.00,,BKN035,0.01,VWS V14.01,2013-05-12 20:41:00,
2013-05-12 16:42:00,87.8,68.6,29.90,WSW,258,2.0,10.0,53,0.00,,BKN035,0.01,VWS V14.01,2013-05-12 20:42:00,
2013-05-12 16:45:00,87.8,69.1,29.90,WNW,303,0.0,10.0,54,0.00,,BKN035,0.01,VWS V14.01,2013-05-12 20:45:00,
2013-05-12 16:46:00,87.7,68.5,29.91,NW,315,8.0,10.0,53,0.00,,BKN035,0.01,VWS V14.01,2013-05-12 20:46:00,
2013-05-12 16:47:00,87.6,68.4,29.91,NW,313,4.0,10.0,53,0.00,,BKN035,0.01,VWS V14.01,2013-05-12 20:47:00,
2013-05-12 16:50:00,87.2,68.5,29.90,NW,315,0.0,10.0,54,0.00,,BKN035,0.01,VWS V14.01,2013-05-12 20:50:00,
2013-05-12 16:51:00,87.1,68.4,29.90,NW,313,4.0,10.0,54,0.00,,BKN035,0.01,VWS V14.01,2013-05-12 20:51:00,
2013-05-12 16:52:00,87.0,68.4,29.90,NW,313,6.0,10.0,54,0.00,,BKN035,0.01,VWS V14.01,2013-05-12 20:52:00,
2013-05-12 16:55:00,87.1,68.4,29.91,NW,318,0.0,10.0,54,0.00,,BKN035,0.01,VWS V14.01,2013-05-12 20:55:00,
2013-05-12 16:56:00,87.3,68.6,29.91,NW,317,0.0,10.0,54,0.00,,BKN035,0.01,VWS V14.01,2013-05-12 20:56:00,
2013-05-12 16:57:00,87.6,68.9,29.91,West,275,8.0,10.0,54,0.00,,BKN035,0.01,VWS V14.01,2013-05-12 20:57:00,
2013-05-12 16:58:00,87.5,68.3,29.91,WNW,302,3.0,10.0,53,0.00,,BKN035,0.01,VWS V14.01,2013-05-12 20:58:00,
2013-05-12 17:00:00,87.5,68.3,29.91,WNW,293,3.0,10.0,53,0.00,,BKN035,0.01,VWS V14.01,2013-05-12 21:00:00,
2013-05-12 17:01:00,87.5,68.3,29.90,WNW,292,0.0,4.0,53,0.00,,BKN035,0.01,VWS V14.01,2013-05-12 21:01:00,
2013-05-12 17:02:00,87.5,68.3,29.90,WNW,293,0.0,4.0,53,0.00,,BKN035,0.01,VWS V14.01,2013-05-12 21:02:00,
2013-05-12 17:03:00,87.5,68.3,29.90,WNW,290,0.0,4.0,53,0.00,,BKN035,0.01,VWS V14.01,2013-05-12 21:03:00,
2013-05-12 17:06:00,87.3,68.1,29.91,WNW,288,0.0,4.0,53,0.00,,BKN035,0.01,VWS V14.01,2013-05-12 21:06:00,
2013-05-12 17:07:00,87.3,68.1,29.91,WNW,288,0.0,4.0,53,0.00,,BKN035,0.01,VWS V14.01,2013-05-12 21:07:00,
2013-05-12 17:08:00,87.3,68.6,29.90,WNW,288,0.0,4.0,54,0.00,,BKN035,0.01,VWS V14.01,2013-05-12 21:08:00,
2013-05-12 17:11:00,87.2,68.5,29.90,WNW,284,1.0,4.0,54,0.00,,BKN035,0.01,VWS V14.01,2013-05-12 21:11:00,
2013-05-12 17:12:00,87.1,67.9,29.91,West,274,0.0,11.0,53,0.00,,BKN035,0.01,VWS V14.01,2013-05-12 21:12:00,
2013-05-12 17:13:00,87.0,68.4,29.91,West,277,0.0,11.0,54,0.00,,BKN035,0.01,VWS V14.01,2013-05-12 21:13:00,
2013-05-12 17:16:00,86.9,67.7,29.91,WNW,284,1.0,11.0,53,0.00,,BKN035,0.01,VWS V14.01,2013-05-12 21:16:00,
2013-05-12 17:17:00,86.8,67.6,29.91,WNW,284,0.0,11.0,53,0.00,,BKN035,0.01,VWS V14.01,2013-05-12 21:17:00,
2013-05-12 17:18:00,86.9,68.3,29.91,WNW,284,0.0,11.0,54,0.00,,BKN035,0.01,VWS V14.01,2013-05-12 21:18:00,
2013-05-12 17:21:00,87.2,68.5,29.91,West,270,4.0,11.0,54,0.00,,BKN035,0.01,VWS V14.01,2013-05-12 21:21:00,
2013-05-12 17:22:00,87.3,68.1,29.91,West,259,3.0,11.0,53,0.00,,BKN035,0.01,VWS V14.01,2013-05-12 21:22:00,
2013-05-12 17:23:00,87.5,68.3,29.91,West,280,2.0,11.0,53,0.00,,BKN035,0.01,VWS V14.01,2013-05-12 21:23:00,
2013-05-12 17:26:00,87.6,67.8,29.91,WSW,246,0.0,11.0,52,0.00,,BKN035,0.01,VWS V14.01,2013-05-12 21:26:00,
2013-05-12 17:27:00,87.5,68.3,29.91,WSW,248,0.0,11.0,53,0.00,,BKN035,0.01,VWS V14.01,2013-05-12 21:27:00,
2013-05-12 17:28:00,87.5,68.3,29.91,WSW,250,0.0,11.0,53,0.00,,BKN035,0.01,VWS V14.01,2013-05-12 21:28:00,
2013-05-12 17:31:00,87.2,68.0,29.91,SW,229,0.0,11.0,53,0.00,,BKN035,0.01,VWS V14.01,2013-05-12 21:31:00,
2013-05-12 17:32:00,87.1,67.9,29.91,SW,229,0.0,11.0,53,0.00,,BKN035,0.01,VWS V14.01,2013-05-12 21:32:00,
2013-05-12 17:33:00,87.1,67.9,29.91,SW,229,0.0,11.0,53,0.00,,BKN035,0.01,VWS V14.01,2013-05-12 21:33:00,
2013-05-12 17:34:00,87.1,67.9,29.91,SW,232,0.0,11.0,53,0.00,,BKN035,0.01,VWS V14.01,2013-05-12 21:34:00,
2013-05-12 17:36:00,87.1,68.4,29.91,SW,232,0.0,11.0,54,0.00,,BKN035,0.01,VWS V14.01,2013-05-12 21:36:00,
2013-05-12 17:37:00,87.2,68.5,29.91,SW,232,0.0,11.0,54,0.00,,BKN035,0.01,VWS V14.01,2013-05-12 21:37:00,
2013-05-12 17:38:00,87.2,68.0,29.91,SW,233,0.0,11.0,53,0.00,,BKN035,0.01,VWS V14.01,2013-05-12 21:38:00,
2013-05-12 17:39:00,87.3,68.1,29.91,West,260,3.0,11.0,53,0.00,,BKN035,0.01,VWS V14.01,2013-05-12 21:39:00,
2013-05-12 17:41:00,87.4,68.2,29.91,WNW,297,0.0,11.0,53,0.00,,BKN035,0.01,VWS V14.01,2013-05-12 21:41:00,
2013-05-12 17:42:00,87.4,68.2,29.91,WNW,296,0.0,11.0,53,0.00,,BKN035,0.01,VWS V14.01,2013-05-12 21:42:00,
2013-05-12 17:43:00,87.4,68.2,29.91,WNW,287,0.0,11.0,53,0.00,,BKN035,0.01,VWS V14.01,2013-05-12 21:43:00,
2013-05-12 17:44:00,87.5,67.7,29.91,WNW,284,0.0,11.0,52,0.00,,BKN035,0.01,VWS V14.01,2013-05-12 21:44:00,
2013-05-12 17:46:00,87.6,68.4,29.91,WNW,284,0.0,11.0,53,0.00,,BKN035,0.01,VWS V14.01,2013-05-12 21:46:00,
2013-05-12 17:47:00,87.7,69.0,29.91,WNW,283,0.0,11.0,54,0.00,,BKN035,0.01,VWS V14.01,2013-05-12 21:47:00,
2013-05-12 17:48:00,87.7,69.0,29.91,WNW,283,0.0,11.0,54,0.00,,BKN035,0.01,VWS V14.01,2013-05-12 21:48:00,
2013-05-12 17:49:00,87.7,67.9,29.91,West,281,0.0,11.0,52,0.00,,BKN035,0.01,VWS V14.01,2013-05-12 21:49:00,
2013-05-12 17:51:00,87.8,68.6,29.90,West,281,0.0,11.0,53,0.00,,BKN035,0.01,VWS V14.01,2013-05-12 21:51:00,
2013-05-12 17:53:00,87.8,68.6,29.91,WNW,282,0.0,11.0,53,0.00,,BKN035,0.01,VWS V14.01,2013-05-12 21:53:00,
2013-05-12 17:54:00,87.8,68.0,29.91,WNW,282,0.0,11.0,52,0.00,,BKN035,0.01,VWS V14.01,2013-05-12 21:54:00,
2013-05-12 17:55:00,87.8,68.6,29.91,West,266,0.0,11.0,53,0.00,,BKN035,0.01,VWS V14.01,2013-05-12 21:55:00,
2013-05-12 17:56:00,87.8,68.0,29.91,West,263,1.0,11.0,52,0.00,,BKN035,0.01,VWS V14.01,2013-05-12 21:56:00,
2013-05-12 17:58:00,87.8,66.9,29.90,West,267,2.0,11.0,50,0.00,,BKN035,0.01,VWS V14.01,2013-05-12 21:58:00,
2013-05-12 17:59:00,87.9,66.9,29.90,West,267,0.0,11.0,50,0.00,,BKN035,0.01,VWS V14.01,2013-05-12 21:59:00,
2013-05-12 18:00:00,88.0,67.1,29.90,West,267,0.0,11.0,50,0.00,,BKN035,0.01,VWS V14.01,2013-05-12 22:00:00,
2013-05-12 18:02:00,88.2,67.8,29.90,WNW,286,5.0,8.0,51,0.00,,BKN035,0.01,VWS V14.01,2013-05-12 22:02:00,
2013-05-12 18:03:00,88.3,67.3,29.90,WNW,296,3.0,8.0,50,0.00,,BKN035,0.01,VWS V14.01,2013-05-12 22:03:00,
2013-05-12 18:04:00,88.3,67.3,29.90,NW,312,0.0,8.0,50,0.00,,BKN035,0.01,VWS V14.01,2013-05-12 22:04:00,
2013-05-12 18:05:00,88.4,68.0,29.91,NW,313,0.0,8.0,51,0.00,,BKN035,0.01,VWS V14.01,2013-05-12 22:05:00,
2013-05-12 18:07:00,88.5,68.1,29.91,WNW,303,0.0,8.0,51,0.00,,BKN035,0.01,VWS V14.01,2013-05-12 22:07:00,
2013-05-12 18:08:00,88.4,67.4,29.91,WNW,290,0.0,8.0,50,0.00,,BKN035,0.01,VWS V14.01,2013-05-12 22:08:00,
2013-05-12 18:09:00,88.4,67.4,29.91,WNW,297,0.0,8.0,50,0.00,,BKN035,0.01,VWS V14.01,2013-05-12 22:09:00,
2013-05-12 18:10:00,88.4,67.4,29.90,NW,319,0.0,8.0,50,0.00,,BKN035,0.01,VWS V14.01,2013-05-12 22:10:00,
2013-05-12 18:12:00,88.3,67.3,29.91,NW,315,2.0,8.0,50,0.00,,BKN035,0.01,VWS V14.01,2013-05-12 22:12:00,
2013-05-12 18:13:00,88.3,67.3,29.91,WNW,294,0.0,9.0,50,0.00,,BKN035,0.01,VWS V14.01,2013-05-12 22:13:00,
2013-05-12 18:14:00,88.2,67.2,29.91,NW,319,6.0,9.0,50,0.00,,BKN035,0.01,VWS V14.01,2013-05-12 22:14:00,
2013-05-12 18:15:00,88.1,67.1,29.91,NW,318,0.0,9.0,50,0.00,,BKN035,0.01,VWS V14.01,2013-05-12 22:15:00,
2013-05-12 18:17:00,87.9,67.5,29.91,WNW,291,0.0,10.0,51,0.00,,BKN035,0.01,VWS V14.01,2013-05-12 22:17:00,
2013-05-12 18:18:00,87.9,66.9,29.91,NW,306,0.0,10.0,50,0.00,,BKN035,0.01,VWS V14.01,2013-05-12 22:18:00,
2013-05-12 18:19:00,87.8,66.9,29.91,NW,309,0.0,10.0,50,0.00,,BKN035,0.01,VWS V14.01,2013-05-12 22:19:00,
2013-05-12 18:20:00,87.7,66.8,29.91,NW,321,3.0,10.0,50,0.00,,BKN035,0.01,VWS V14.01,2013-05-12 22:20:00,
2013-05-12 18:23:00,87.3,67.0,29.91,WNW,287,0.0,10.0,51,0.00,,BKN035,0.01,VWS V14.01,2013-05-12 22:23:00,
2013-05-12 18:24:00,87.3,67.0,29.91,WNW,287,0.0,10.0,51,0.00,,BKN035,0.01,VWS V14.01,2013-05-12 22:24:00,
2013-05-12 18:25:00,87.2,66.9,29.91,NW,312,9.0,10.0,51,0.00,,BKN035,0.01,VWS V14.01,2013-05-12 22:25:00,
2013-05-12 18:28:00,87.1,66.8,29.91,WNW,292,4.0,11.0,51,0.00,,BKN035,0.01,VWS V14.01,2013-05-12 22:28:00,
2013-05-12 18:29:00,87.2,66.9,29.91,WNW,293,0.0,11.0,51,0.00,,BKN035,0.01,VWS V14.01,2013-05-12 22:29:00,
2013-05-12 18:30:00,87.1,66.8,29.91,NW,315,4.0,11.0,51,0.00,,BKN035,0.01,VWS V14.01,2013-05-12 22:30:00,
2013-05-12 18:31:00,87.2,67.4,29.91,NW,319,4.0,11.0,52,0.00,,BKN035,0.01,VWS V14.01,2013-05-12 22:31:00,
2013-05-12 18:33:00,87.2,67.4,29.91,NW,323,0.0,11.0,52,0.00,,BKN035,0.01,VWS V14.01,2013-05-12 22:33:00,
2013-05-12 18:34:00,87.2,67.4,29.91,NW,323,0.0,11.0,52,0.00,,BKN035,0.01,VWS V14.01,2013-05-12 22:34:00,
2013-05-12 18:35:00,87.1,66.8,29.91,NW,326,0.0,11.0,51,0.00,,BKN035,0.01,VWS V14.01,2013-05-12 22:35:00,
2013-05-12 18:36:00,87.0,66.7,29.91,North,350,6.0,11.0,51,0.00,,BKN035,0.01,VWS V14.01,2013-05-12 22:36:00,
2013-05-12 18:39:00,86.8,71.3,29.91,North,5,0.0,11.0,60,0.00,,BKN035,0.01,VWS V14.01,2013-05-12 22:39:00,
2013-05-12 18:40:00,86.4,72.3,29.92,North,355,3.0,11.0,63,0.00,,BKN035,0.01,VWS V14.01,2013-05-12 22:40:00,
2013-05-12 18:41:00,86.1,73.0,29.92,North,349,5.0,11.0,65,0.00,,BKN035,0.01,VWS V14.01,2013-05-12 22:41:00,
2013-05-12 18:44:00,85.2,73.4,29.92,North,11,1.0,11.0,68,0.00,,BKN035,0.01,VWS V14.01,2013-05-12 22:44:00,
2013-05-12 18:45:00,84.9,73.6,29.92,North,11,0.0,11.0,69,0.00,,BKN035,0.01,VWS V14.01,2013-05-12 22:45:00,
2013-05-12 18:46:00,84.7,73.4,29.91,North,9,5.0,11.0,69,0.00,,BKN035,0.01,VWS V14.01,2013-05-12 22:46:00,
2013-05-12 18:49:00,84.3,73.5,29.91,NNE,21,2.0,11.0,70,0.00,,BKN035,0.01,VWS V14.01,2013-05-12 22:49:00,
2013-05-12 18:50:00,84.2,73.4,29.92,NE,50,0.0,11.0,70,0.00,,BKN035,0.01,VWS V14.01,2013-05-12 22:50:00,
2013-05-12 18:51:00,84.1,73.7,29.92,NE,43,0.0,11.0,71,0.00,,BKN035,0.01,VWS V14.01,2013-05-12 22:51:00,
2013-05-12 18:54:00,83.8,73.8,29.91,NNE,33,0.0,11.0,72,0.00,,BKN035,0.01,VWS V14.01,2013-05-12 22:54:00,
2013-05-12 18:55:00,83.8,73.8,29.92,NNE,33,0.0,11.0,72,0.00,,BKN035,0.01,VWS V14.01,2013-05-12 22:55:00,
2013-05-12 18:56:00,83.7,73.7,29.92,NE,34,0.0,11.0,72,0.00,,BKN035,0.01,VWS V14.01,2013-05-12 22:56:00,
2013-05-12 18:59:00,83.4,73.8,29.92,North,5,0.0,11.0,73,0.00,,BKN035,0.01,VWS V14.01,2013-05-12 22:59:00,
2013-05-12 19:00:00,83.4,73.8,29.92,North,9,0.0,11.0,73,0.00,,BKN035,0.01,VWS V14.01,2013-05-12 23:00:00,
2013-05-12 19:01:00,83.3,73.8,29.92,North,5,3.0,4.0,73,0.00,,BKN035,0.01,VWS V14.01,2013-05-12 23:01:00,
2013-05-12 19:04:00,82.9,72.9,29.92,North,350,0.0,6.0,72,0.00,,BKN035,0.01,VWS V14.01,2013-05-12 23:04:00,
2013-05-12 19:05:00,82.9,72.9,29.92,North,350,0.0,6.0,72,0.00,,BKN035,0.01,VWS V14.01,2013-05-12 23:05:00,
2013-05-12 19:06:00,82.9,73.4,29.92,North,355,0.0,6.0,73,0.00,,BKN035,0.01,VWS V14.01,2013-05-12 23:06:00,
2013-05-12 19:07:00,82.8,73.3,29.92,North,360,0.0,6.0,73,0.00,,BKN035,0.01,VWS V14.01,2013-05-12 23:07:00,
2013-05-12 19:10:00,82.6,73.1,29.92,North,360,0.0,6.0,73,0.00,,BKN035,0.01,VWS V14.01,2013-05-12 23:10:00,
2013-05-12 19:11:00,82.6,73.1,29.92,North,360,0.0,6.0,73,0.00,,BKN035,0.01,VWS V14.01,2013-05-12 23:11:00,
2013-05-12 19:12:00,82.5,73.0,29.92,North,360,0.0,6.0,73,0.00,,BKN035,0.01,VWS V14.01,2013-05-12 23:12:00,
2013-05-12 19:15:00,82.4,72.9,29.92,North,355,0.0,6.0,73,0.00,,BKN035,0.01,VWS V14.01,2013-05-12 23:15:00,
2013-05-12 19:16:00,82.4,72.9,29.92,North,355,0.0,6.0,73,0.00,,BKN035,0.01,VWS V14.01,2013-05-12 23:16:00,
2013-05-12 19:17:00,82.3,72.8,29.92,North,355,0.0,6.0,73,0.00,,BKN035,0.01,VWS V14.01,2013-05-12 23:17:00,
2013-05-12 19:20:00,82.2,73.1,29.93,North,355,0.0,6.0,74,0.00,,BKN035,0.01,VWS V14.01,2013-05-12 23:20:00,
2013-05-12 19:21:00,82.2,73.1,29.92,North,355,0.0,6.0,74,0.00,,BKN035,0.01,VWS V14.01,2013-05-12 23:21:00,
2013-05-12 19:22:00,82.1,73.0,29.92,North,355,0.0,6.0,74,0.00,,BKN035,0.01,VWS V14.01,2013-05-12 23:22:00,
2013-05-12 19:25:00,82.0,72.9,29.93,North,355,0.0,6.0,74,0.00,,BKN035,0.01,VWS V14.01,2013-05-12 23:25:00,
2013-05-12 19:26:00,82.1,73.0,29.92,North,355,0.0,6.0,74,0.00,,BKN035,0.01,VWS V14.01,2013-05-12 23:26:00,
2013-05-12 19:27:00,82.0,73.3,29.92,North,355,0.0,6.0,75,0.00,,BKN035,0.01,VWS V14.01,2013-05-12 23:27:00,
2013-05-12 19:31:00,82.0,73.7,29.93,North,355,0.0,6.0,76,0.00,,BKN035,0.01,VWS V14.01,2013-05-12 23:31:00,
2013-05-12 19:32:00,81.9,73.6,29.93,North,355,0.0,6.0,76,0.00,,BKN035,0.01,VWS V14.01,2013-05-12 23:32:00,
2013-05-12 19:36:00,81.8,73.5,29.93,North,355,0.0,6.0,76,0.00,,BKN035,0.01,VWS V14.01,2013-05-12 23:36:00,
2013-05-12 19:38:00,81.7,73.4,29.93,North,355,0.0,6.0,76,0.00,,BKN035,0.01,VWS V14.01,2013-05-12 23:38:00,
2013-05-12 19:41:00,81.6,72.9,29.93,North,355,0.0,6.0,75,0.00,,BKN035,0.01,VWS V14.01,2013-05-12 23:41:00,
2013-05-12 19:42:00,81.6,72.9,29.93,North,355,0.0,6.0,75,0.00,,BKN035,0.01,VWS V14.01,2013-05-12 23:42:00,
2013-05-12 19:43:00,81.6,72.9,29.93,North,355,0.0,6.0,75,0.00,,BKN035,0.01,VWS V14.01,2013-05-12 23:43:00,
2013-05-12 19:46:00,81.5,73.6,29.93,North,355,0.0,6.0,77,0.00,,BKN035,0.01,VWS V14.01,2013-05-12 23:46:00,
2013-05-12 19:47:00,81.5,73.6,29.93,North,355,0.0,6.0,77,0.00,,BKN035,0.01,VWS V14.01,2013-05-12 23:47:00,
2013-05-12 19:48:00,81.4,73.9,29.94,North,355,0.0,6.0,78,0.00,,BKN035,0.01,VWS V14.01,2013-05-12 23:48:00,
2013-05-12 19:51:00,81.3,74.2,29.94,North,355,0.0,6.0,79,0.00,,BKN035,0.01,VWS V14.01,2013-05-12 23:51:00,
2013-05-12 19:52:00,81.3,74.2,29.94,North,355,0.0,6.0,79,0.00,,BKN035,0.01,VWS V14.01,2013-05-12 23:52:00,
2013-05-12 19:54:00,81.1,74.0,29.94,North,355,0.0,6.0,79,0.00,,BKN035,0.01,VWS V14.01,2013-05-12 23:54:00,
2013-05-12 19:56:00,81.0,74.2,29.94,North,355,0.0,6.0,80,0.00,,BKN035,0.01,VWS V14.01,2013-05-12 23:56:00,
2013-05-12 19:57:00,81.0,74.2,29.94,North,355,0.0,6.0,80,0.00,,BKN035,0.01,VWS V14.01,2013-05-12 23:57:00,
2013-05-12 19:59:00,80.9,74.2,29.94,North,355,0.0,6.0,80,0.00,,BKN035,0.01,VWS V14.01,2013-05-12 23:59:00,
2013-05-12 20:00:00,80.7,74.3,29.94,North,355,0.0,6.0,81,0.00,,BKN035,0.01,VWS V14.01,2013-05-13 00:00:00,
2013-05-12 20:01:00,80.7,74.3,29.94,North,355,0.0,0.0,81,0.00,,BKN035,0.01,VWS V14.01,2013-05-13 00:01:00,
2013-05-12 20:02:00,80.7,74.3,29.94,North,355,0.0,0.0,81,0.00,,BKN035,0.01,VWS V14.01,2013-05-13 00:02:00,
2013-05-12 20:04:00,80.6,74.6,29.94,North,355,0.0,0.0,82,0.00,,BKN035,0.01,VWS V14.01,2013-05-13 00:04:00,
2013-05-12 20:07:00,80.3,74.3,29.94,North,355,0.0,0.0,82,0.00,,BKN035,0.01,VWS V14.01,2013-05-13 00:07:00,
2013-05-12 20:09:00,80.2,74.2,29.94,North,355,0.0,0.0,82,0.00,,BKN035,0.01,VWS V14.01,2013-05-13 00:09:00,
2013-05-12 20:12:00,80.1,74.1,29.94,North,355,0.0,0.0,82,0.00,,BKN035,0.01,VWS V14.01,2013-05-13 00:12:00,
2013-05-12 20:14:00,80.0,74.4,29.94,North,355,0.0,0.0,83,0.00,,BKN035,0.01,VWS V14.01,2013-05-13 00:14:00,
2013-05-12 20:17:00,79.9,74.3,29.94,North,355,0.0,0.0,83,0.00,,BKN035,0.01,VWS V14.01,2013-05-13 00:17:00,
2013-05-12 20:18:00,79.9,74.3,29.94,North,355,0.0,0.0,83,0.00,,BKN035,0.01,VWS V14.01,2013-05-13 00:18:00,
2013-05-12 20:19:00,79.8,74.2,29.95,North,355,0.0,0.0,83,0.00,,BKN035,0.01,VWS V14.01,2013-05-13 00:19:00,
2013-05-12 20:22:00,79.8,74.2,29.94,North,355,0.0,0.0,83,0.00,,BKN035,0.01,VWS V14.01,2013-05-13 00:22:00,
2013-05-12 20:23:00,79.7,74.1,29.94,North,355,0.0,0.0,83,0.00,,BKN035,0.01,VWS V14.01,2013-05-13 00:23:00,
2013-05-12 20:24:00,79.7,74.1,29.94,North,355,0.0,0.0,83,0.00,,BKN035,0.01,VWS V14.01,2013-05-13 00:24:00,
2013-05-12 20:27:00,79.5,73.9,29.95,North,355,0.0,0.0,83,0.00,,BKN035,0.01,VWS V14.01,2013-05-13 00:27:00,
2013-05-12 20:28:00,79.6,74.0,29.95,North,355,0.0,0.0,83,0.00,,BKN035,0.01,VWS V14.01,2013-05-13 00:28:00,
2013-05-12 20:29:00,79.5,73.9,29.95,North,355,0.0,0.0,83,0.00,,BKN035,0.01,VWS V14.01,2013-05-13 00:29:00,
2013-05-12 20:33:00,79.4,73.8,29.95,North,355,0.0,0.0,83,0.00,,BKN035,0.01,VWS V14.01,2013-05-13 00:33:00,
2013-05-12 20:35:00,79.4,73.8,29.95,North,355,0.0,0.0,83,0.00,,BKN035,0.01,VWS V14.01,2013-05-13 00:35:00,
2013-05-12 20:38:00,79.3,73.7,29.95,North,355,0.0,0.0,83,0.00,,BKN035,0.01,VWS V14.01,2013-05-13 00:38:00,
2013-05-12 20:39:00,79.3,74.1,29.95,North,355,0.0,0.0,84,0.00,,BKN035,0.01,VWS V14.01,2013-05-13 00:39:00,
2013-05-12 20:40:00,79.2,73.9,29.95,North,355,0.0,0.0,84,0.00,,BKN035,0.01,VWS V14.01,2013-05-13 00:40:00,
2013-05-12 20:43:00,79.2,74.3,29.95,North,355,0.0,0.0,85,0.00,,BKN035,0.01,VWS V14.01,2013-05-13 00:43:00,
2013-05-12 20:44:00,79.2,74.3,29.95,North,355,0.0,0.0,85,0.00,,BKN035,0.01,VWS V14.01,2013-05-13 00:44:00,
2013-05-12 20:45:00,79.1,74.2,29.95,North,355,0.0,0.0,85,0.00,,BKN035,0.01,VWS V14.01,2013-05-13 00:45:00,
2013-05-12 20:48:00,79.0,74.1,29.95,North,355,0.0,0.0,85,0.00,,BKN035,0.01,VWS V14.01,2013-05-13 00:48:00,
2013-05-12 20:49:00,79.0,74.1,29.96,North,355,0.0,0.0,85,0.00,,BKN035,0.01,VWS V14.01,2013-05-13 00:49:00,
2013-05-12 20:50:00,78.9,74.0,29.96,North,355,0.0,0.0,85,0.00,,BKN035,0.01,VWS V14.01,2013-05-13 00:50:00,
2013-05-12 20:53:00,78.8,74.3,29.96,North,355,0.0,0.0,86,0.00,,BKN035,0.01,VWS V14.01,2013-05-13 00:53:00,
2013-05-12 20:54:00,78.8,74.3,29.96,North,355,0.0,0.0,86,0.00,,BKN035,0.01,VWS V14.01,2013-05-13 00:54:00,
2013-05-12 20:55:00,78.7,74.2,29.96,North,355,0.0,0.0,86,0.00,,BKN035,0.01,VWS V14.01,2013-05-13 00:55:00,
2013-05-12 20:58:00,78.6,74.4,29.96,North,355,0.0,0.0,87,0.00,,BKN035,0.01,VWS V14.01,2013-05-13 00:58:00,
2013-05-12 20:59:00,78.5,74.3,29.96,North,355,0.0,0.0,87,0.00,,BKN035,0.01,VWS V14.01,2013-05-13 00:59:00,
2013-05-12 21:00:00,78.5,74.3,29.96,North,355,0.0,0.0,87,0.00,,BKN035,0.01,VWS V14.01,2013-05-13 01:00:00,
2013-05-12 21:01:00,78.5,74.3,29.96,North,355,0.0,0.0,87,0.00,,BKN035,0.01,VWS V14.01,2013-05-13 01:01:00,
2013-05-12 21:03:00,78.4,74.2,29.96,North,355,0.0,0.0,87,0.00,,BKN035,0.01,VWS V14.01,2013-05-13 01:03:00,
2013-05-12 21:04:00,78.4,74.2,29.96,North,355,0.0,0.0,87,0.00,,BKN035,0.01,VWS V14.01,2013-05-13 01:04:00,
2013-05-12 21:06:00,78.3,74.1,29.96,North,355,0.0,0.0,87,0.00,,BKN035,0.01,VWS V14.01,2013-05-13 01:06:00,
2013-05-12 21:08:00,78.2,74.4,29.96,North,355,0.0,0.0,88,0.00,,BKN035,0.01,VWS V14.01,2013-05-13 01:08:00,
2013-05-12 21:09:00,78.2,74.4,29.96,North,355,0.0,0.0,88,0.00,,BKN035,0.01,VWS V14.01,2013-05-13 01:09:00,
2013-05-12 21:11:00,78.2,74.4,29.96,North,355,0.0,0.0,88,0.00,,BKN035,0.01,VWS V14.01,2013-05-13 01:11:00,
2013-05-12 21:14:00,78.0,74.2,29.96,North,355,0.0,0.0,88,0.00,,BKN035,0.01,VWS V14.01,2013-05-13 01:14:00,
2013-05-12 21:16:00,78.0,74.2,29.96,North,355,0.0,0.0,88,0.00,,BKN035,0.01,VWS V14.01,2013-05-13 01:16:00,
2013-05-12 21:19:00,77.9,74.4,29.96,North,355,0.0,0.0,89,0.00,,BKN035,0.01,VWS V14.01,2013-05-13 01:19:00,
2013-05-12 21:20:00,77.9,74.4,29.97,North,355,0.0,0.0,89,0.00,,BKN035,0.01,VWS V14.01,2013-05-13 01:20:00,
2013-05-12 21:21:00,77.9,74.4,29.97,North,355,0.0,0.0,89,0.00,,BKN035,0.01,VWS V14.01,2013-05-13 01:21:00,
2013-05-12 21:24:00,77.8,74.3,29.97,North,355,0.0,0.0,89,0.00,,BKN035,0.01,VWS V14.01,2013-05-13 01:24:00,
2013-05-12 21:25:00,77.8,74.3,29.97,North,355,0.0,0.0,89,0.00,,BKN035,0.01,VWS V14.01,2013-05-13 01:25:00,
2013-05-12 21:26:00,77.8,74.3,29.97,North,355,0.0,0.0,89,0.00,,BKN035,0.01,VWS V14.01,2013-05-13 01:26:00,
2013-05-12 21:29:00,77.6,74.1,29.97,North,355,0.0,0.0,89,0.00,,BKN035,0.01,VWS V14.01,2013-05-13 01:29:00,
2013-05-12 21:30:00,77.6,74.1,29.97,North,355,0.0,0.0,89,0.00,,BKN035,0.01,VWS V14.01,2013-05-13 01:30:00,
2013-05-12 21:31:00,77.6,74.1,29.97,North,355,0.0,0.0,89,0.00,,BKN035,0.01,VWS V14.01,2013-05-13 01:31:00,
2013-05-12 21:34:00,77.6,74.4,29.97,North,355,0.0,0.0,90,0.00,,BKN035,0.01,VWS V14.01,2013-05-13 01:34:00,
2013-05-12 21:35:00,77.6,74.4,29.97,North,355,0.0,0.0,90,0.00,,BKN035,0.01,VWS V14.01,2013-05-13 01:35:00,
2013-05-12 21:36:00,77.6,74.4,29.97,North,355,0.0,0.0,90,0.00,,BKN035,0.01,VWS V14.01,2013-05-13 01:36:00,
2013-05-12 21:39:00,77.5,74.3,29.97,North,355,0.0,0.0,90,0.00,,BKN035,0.01,VWS V14.01,2013-05-13 01:39:00,
2013-05-12 21:40:00,77.5,74.3,29.97,North,355,0.0,0.0,90,0.00,,BKN035,0.01,VWS V14.01,2013-05-13 01:40:00,
2013-05-12 21:42:00,77.5,74.3,29.97,North,355,0.0,0.0,90,0.00,,BKN035,0.01,VWS V14.01,2013-05-13 01:42:00,
2013-05-12 21:44:00,77.5,74.3,29.97,North,355,0.0,0.0,90,0.00,,BKN035,0.01,VWS V14.01,2013-05-13 01:44:00,
2013-05-12 21:45:00,77.5,74.3,29.97,North,355,0.0,0.0,90,0.00,,BKN035,0.01,VWS V14.01,2013-05-13 01:45:00,
2013-05-12 21:47:00,77.4,74.2,29.97,North,355,0.0,0.0,90,0.00,,BKN035,0.01,VWS V14.01,2013-05-13 01:47:00,
2013-05-12 21:50:00,77.4,74.2,29.98,North,355,0.0,0.0,90,0.00,,BKN035,0.01,VWS V14.01,2013-05-13 01:50:00,
2013-05-12 21:51:00,77.4,74.2,29.98,North,355,0.0,0.0,90,0.00,,BKN035,0.01,VWS V14.01,2013-05-13 01:51:00,
2013-05-12 21:52:00,77.4,74.2,29.98,North,355,0.0,0.0,90,0.00,,BKN035,0.01,VWS V14.01,2013-05-13 01:52:00,
2013-05-12 21:55:00,77.3,74.1,29.98,North,355,0.0,0.0,90,0.00,,BKN035,0.01,VWS V14.01,2013-05-13 01:55:00,
2013-05-12 21:56:00,77.3,74.1,29.98,North,355,0.0,0.0,90,0.00,,BKN035,0.01,VWS V14.01,2013-05-13 01:56:00,
2013-05-12 21:57:00,77.3,74.1,29.98,North,355,0.0,0.0,90,0.00,,BKN035,0.01,VWS V14.01,2013-05-13 01:57:00,
2013-05-12 22:00:00,77.3,74.1,29.99,North,355,0.0,0.0,90,0.00,,BKN035,0.01,VWS V14.01,2013-05-13 02:00:00,
2013-05-12 22:01:00,77.2,74.0,29.99,North,355,0.0,0.0,90,0.00,,BKN035,0.01,VWS V14.01,2013-05-13 02:01:00,
2013-05-12 22:03:00,77.1,73.9,29.99,North,355,0.0,0.0,90,0.00,,BKN035,0.01,VWS V14.01,2013-05-13 02:03:00,
2013-05-12 22:05:00,77.1,73.9,29.99,North,355,0.0,0.0,90,0.00,,BKN035,0.01,VWS V14.01,2013-05-13 02:05:00,
2013-05-12 22:06:00,77.1,73.9,29.99,North,355,0.0,0.0,90,0.00,,BKN035,0.01,VWS V14.01,2013-05-13 02:06:00,
2013-05-12 22:08:00,77.0,73.8,29.99,North,355,0.0,0.0,90,0.00,,BKN035,0.01,VWS V14.01,2013-05-13 02:08:00,
2013-05-12 22:10:00,76.9,73.8,29.99,North,355,0.0,0.0,90,0.00,,BKN035,0.01,VWS V14.01,2013-05-13 02:10:00,
2013-05-12 22:11:00,76.9,73.8,29.99,North,355,0.0,0.0,90,0.00,,BKN035,0.01,VWS V14.01,2013-05-13 02:11:00,
2013-05-12 22:12:00,76.9,73.8,29.99,North,355,0.0,0.0,90,0.00,,BKN035,0.01,VWS V14.01,2013-05-13 02:12:00,
2013-05-12 22:13:00,76.8,73.7,29.99,North,355,0.0,0.0,90,0.00,,BKN035,0.01,VWS V14.01,2013-05-13 02:13:00,
2013-05-12 22:15:00,76.8,74.0,29.99,North,355,0.0,0.0,91,0.00,,BKN035,0.01,VWS V14.01,2013-05-13 02:15:00,
2013-05-12 22:16:00,76.7,73.9,29.99,North,355,0.0,0.0,91,0.00,,BKN035,0.01,VWS V14.01,2013-05-13 02:16:00,
2013-05-12 22:17:00,76.7,73.9,29.99,North,355,0.0,0.0,91,0.00,,BKN035,0.01,VWS V14.01,2013-05-13 02:17:00,
2013-05-12 22:18:00,76.6,73.8,30.00,North,355,0.0,0.0,91,0.00,,BKN035,0.01,VWS V14.01,2013-05-13 02:18:00,
2013-05-12 22:20:00,76.6,73.8,29.99,North,355,0.0,0.0,91,0.00,,BKN035,0.01,VWS V14.01,2013-05-13 02:20:00,
2013-05-12 22:21:00,76.5,73.7,29.99,North,355,0.0,0.0,91,0.00,,BKN035,0.01,VWS V14.01,2013-05-13 02:21:00,
2013-05-12 22:22:00,76.5,73.7,29.99,North,355,0.0,0.0,91,0.00,,BKN035,0.01,VWS V14.01,2013-05-13 02:22:00,
2013-05-12 22:23:00,76.5,73.7,29.99,North,355,0.0,0.0,91,0.00,,BKN035,0.01,VWS V14.01,2013-05-13 02:23:00,
2013-05-12 22:25:00,76.4,73.6,30.00,North,355,0.0,0.0,91,0.00,,BKN035,0.01,VWS V14.01,2013-05-13 02:25:00,
2013-05-12 22:26:00,76.4,73.9,30.00,North,355,0.0,0.0,92,0.00,,BKN035,0.01,VWS V14.01,2013-05-13 02:26:00,
2013-05-12 22:27:00,76.4,73.9,30.00,North,355,0.0,0.0,92,0.00,,BKN035,0.01,VWS V14.01,2013-05-13 02:27:00,
2013-05-12 22:28:00,76.3,73.8,30.00,North,355,0.0,0.0,92,0.00,,BKN035,0.01,VWS V14.01,2013-05-13 02:28:00,
2013-05-12 22:30:00,76.2,73.7,30.00,North,355,0.0,0.0,92,0.00,,BKN035,0.01,VWS V14.01,2013-05-13 02:30:00,
2013-05-12 22:31:00,76.2,73.7,30.00,North,355,0.0,0.0,92,0.00,,BKN035,0.01,VWS V14.01,2013-05-13 02:31:00,
2013-05-12 22:32:00,76.2,73.7,30.00,North,355,0.0,0.0,92,0.00,,BKN035,0.01,VWS V14.01,2013-05-13 02:32:00,
2013-05-12 22:33:00,76.1,73.3,30.00,North,355,0.0,0.0,91,0.00,,BKN035,0.01,VWS V14.01,2013-05-13 02:33:00,
2013-05-12 22:36:00,76.1,73.6,30.00,North,355,0.0,0.0,92,0.00,,BKN035,0.01,VWS V14.01,2013-05-13 02:36:00,
2013-05-12 22:37:00,76.0,73.5,30.00,North,355,0.0,0.0,92,0.00,,BKN035,0.01,VWS V14.01,2013-05-13 02:37:00,
2013-05-12 22:39:00,75.9,73.4,30.00,North,355,0.0,0.0,92,0.00,,BKN035,0.01,VWS V14.01,2013-05-13 02:39:00,
2013-05-12 22:41:00,75.8,73.3,30.00,North,355,0.0,0.0,92,0.00,,BKN035,0.01,VWS V14.01,2013-05-13 02:41:00,
2013-05-12 22:42:00,75.8,73.3,30.00,North,355,0.0,0.0,92,0.00,,BKN035,0.01,VWS V14.01,2013-05-13 02:42:00,
2013-05-12 22:44:00,75.7,73.2,30.00,North,355,0.0,0.0,92,0.00,,BKN035,0.01,VWS V14.01,2013-05-13 02:44:00,
2013-05-12 22:46:00,75.7,73.2,30.00,North,355,0.0,0.0,92,0.00,,BKN035,0.01,VWS V14.01,2013-05-13 02:46:00,
2013-05-12 22:47:00,75.7,73.2,30.00,North,355,0.0,0.0,92,0.00,,BKN035,0.01,VWS V14.01,2013-05-13 02:47:00,
2013-05-12 22:48:00,75.7,73.2,30.00,North,355,0.0,0.0,92,0.00,,BKN035,0.01,VWS V14.01,2013-05-13 02:48:00,
2013-05-12 22:49:00,75.6,73.4,30.00,North,355,0.0,0.0,93,0.00,,BKN035,0.01,VWS V14.01,2013-05-13 02:49:00,
2013-05-12 22:51:00,75.6,73.4,30.00,North,355,0.0,0.0,93,0.00,,BKN035,0.01,VWS V14.01,2013-05-13 02:51:00,
2013-05-12 22:52:00,75.5,73.0,30.00,North,355,0.0,0.0,92,0.00,,BKN035,0.01,VWS V14.01,2013-05-13 02:52:00,
2013-05-12 22:53:00,75.5,73.0,30.00,North,355,0.0,0.0,92,0.00,,BKN035,0.01,VWS V14.01,2013-05-13 02:53:00,
2013-05-12 22:54:00,75.5,73.3,30.00,North,355,0.0,0.0,93,0.00,,BKN035,0.01,VWS V14.01,2013-05-13 02:54:00,
2013-05-12 22:56:00,75.5,73.3,30.00,North,355,0.0,0.0,93,0.00,,BKN035,0.01,VWS V14.01,2013-05-13 02:56:00,
2013-05-12 22:57:00,75.5,73.3,30.00,North,355,0.0,0.0,93,0.00,,BKN035,0.01,VWS V14.01,2013-05-13 02:57:00,
2013-05-12 22:58:00,75.5,73.3,30.01,North,355,0.0,0.0,93,0.00,,BKN035,0.01,VWS V14.01,2013-05-13 02:58:00,
2013-05-12 23:00:00,75.4,73.2,30.01,North,355,0.0,0.0,93,0.00,,BKN035,0.01,VWS V14.01,2013-05-13 03:00:00,
2013-05-12 23:01:00,75.4,73.2,30.01,North,355,0.0,0.0,93,0.00,,BKN035,0.01,VWS V14.01,2013-05-13 03:01:00,
2013-05-12 23:02:00,75.4,73.2,30.01,North,355,0.0,0.0,93,0.00,,BKN035,0.01,VWS V14.01,2013-05-13 03:02:00,
2013-05-12 23:03:00,75.3,73.1,30.01,North,355,0.0,0.0,93,0.00,,BKN035,0.01,VWS V14.01,2013-05-13 03:03:00,
2013-05-12 23:05:00,75.3,73.1,30.00,North,355,0.0,0.0,93,0.00,,BKN035,0.01,VWS V14.01,2013-05-13 03:05:00,
2013-05-12 23:06:00,75.3,73.1,30.01,North,355,0.0,0.0,93,0.00,,BKN035,0.01,VWS V14.01,2013-05-13 03:06:00,
2013-05-12 23:07:00,75.3,73.1,30.01,North,355,0.0,0.0,93,0.00,,BKN035,0.01,VWS V14.01,2013-05-13 03:07:00,
2013-05-12 23:08:00,75.3,73.1,30.01,North,355,0.0,0.0,93,0.00,,BKN035,0.01,VWS V14.01,2013-05-13 03:08:00,
2013-05-12 23:10:00,75.2,73.0,30.01,North,355,0.0,0.0,93,0.00,,BKN035,0.01,VWS V14.01,2013-05-13 03:10:00,
2013-05-12 23:11:00,75.2,73.0,30.01,North,355,0.0,0.0,93,0.00,,BKN035,0.01,VWS V14.01,2013-05-13 03:11:00,
2013-05-12 23:12:00,75.2,73.0,30.01,North,355,0.0,0.0,93,0.00,,BKN035,0.01,VWS V14.01,2013-05-13 03:12:00,
2013-05-12 23:13:00,75.2,73.0,30.01,North,355,0.0,0.0,93,0.00,,BKN035,0.01,VWS V14.01,2013-05-13 03:13:00,
2013-05-12 23:15:00,75.1,72.9,30.01,North,355,0.0,0.0,93,0.00,,BKN035,0.01,VWS V14.01,2013-05-13 03:15:00,
2013-05-12 23:17:00,75.1,72.9,30.01,North,355,0.0,0.0,93,0.00,,BKN035,0.01,VWS V14.01,2013-05-13 03:17:00,
2013-05-12 23:18:00,75.1,72.9,30.01,North,355,0.0,0.0,93,0.00,,BKN035,0.01,VWS V14.01,2013-05-13 03:18:00,
2013-05-12 23:20:00,75.0,72.8,30.00,North,355,0.0,0.0,93,0.00,,BKN035,0.01,VWS V14.01,2013-05-13 03:20:00,
2013-05-12 23:22:00,75.0,72.8,30.00,North,355,0.0,0.0,93,0.00,,BKN035,0.01,VWS V14.01,2013-05-13 03:22:00,
2013-05-12 23:23:00,75.0,72.8,30.00,North,355,0.0,0.0,93,0.00,,BKN035,0.01,VWS V14.01,2013-05-13 03:23:00,
2013-05-12 23:25:00,74.9,72.7,30.00,North,355,0.0,0.0,93,0.00,,BKN035,0.01,VWS V14.01,2013-05-13 03:25:00,
2013-05-12 23:27:00,74.9,72.7,30.00,North,355,0.0,0.0,93,0.00,,BKN035,0.01,VWS V14.01,2013-05-13 03:27:00,
2013-05-12 23:28:00,74.8,72.6,30.00,North,355,0.0,0.0,93,0.00,,BKN035,0.01,VWS V14.01,2013-05-13 03:28:00,
2013-05-12 23:30:00,74.8,72.6,30.00,North,355,0.0,0.0,93,0.00,,BKN035,0.01,VWS V14.01,2013-05-13 03:30:00,
2013-05-12 23:32:00,74.7,72.6,30.00,North,355,0.0,0.0,93,0.00,,BKN035,0.01,VWS V14.01,2013-05-13 03:32:00,
2013-05-12 23:33:00,74.7,72.6,30.00,North,355,0.0,0.0,93,0.00,,BKN035,0.01,VWS V14.01,2013-05-13 03:33:00,
2013-05-12 23:34:00,74.7,72.6,30.00,North,355,0.0,0.0,93,0.00,,BKN035,0.01,VWS V14.01,2013-05-13 03:34:00,
2013-05-12 23:35:00,74.7,72.6,30.00,North,355,0.0,0.0,93,0.00,,BKN035,0.01,VWS V14.01,2013-05-13 03:35:00,
2013-05-12 23:38:00,74.6,72.4,30.00,North,355,0.0,0.0,93,0.00,,BKN035,0.01,VWS V14.01,2013-05-13 03:38:00,
2013-05-12 23:39:00,74.6,72.4,30.00,North,355,0.0,0.0,93,0.00,,BKN035,0.01,VWS V14.01,2013-05-13 03:39:00,
2013-05-12 23:40:00,74.5,72.3,30.00,North,355,0.0,0.0,93,0.00,,BKN035,0.01,VWS V14.01,2013-05-13 03:40:00,
2013-05-12 23:43:00,74.5,72.7,30.00,North,355,0.0,0.0,94,0.00,,BKN035,0.01,VWS V14.01,2013-05-13 03:43:00,
2013-05-12 23:44:00,74.4,72.6,30.00,North,355,0.0,0.0,94,0.00,,BKN035,0.01,VWS V14.01,2013-05-13 03:44:00,
2013-05-12 23:45:00,74.4,72.6,30.00,North,355,0.0,0.0,94,0.00,,BKN035,0.01,VWS V14.01,2013-05-13 03:45:00,
2013-05-12 23:48:00,74.4,72.6,30.00,North,355,0.0,0.0,94,0.00,,BKN035,0.01,VWS V14.01,2013-05-13 03:48:00,
2013-05-12 23:49:00,74.3,72.2,30.00,North,355,0.0,0.0,93,0.00,,BKN035,0.01,VWS V14.01,2013-05-13 03:49:00,
2013-05-12 23:50:00,74.3,72.2,30.00,North,355,0.0,0.0,93,0.00,,BKN035,0.01,VWS V14.01,2013-05-13 03:50:00,
2013-05-12 23:53:00,74.2,72.1,30.00,North,355,0.0,0.0,93,0.00,,BKN035,0.01,VWS V14.01,2013-05-13 03:53:00,
2013-05-12 23:54:00,74.2,72.1,29.99,North,355,0.0,0.0,93,0.00,,BKN035,0.01,VWS V14.01,2013-05-13 03:54:00,
2013-05-12 23:55:00,74.2,72.1,30.00,North,355,0.0,0.0,93,0.00,,BKN035,0.01,VWS V14.01,2013-05-13 03:55:00,
2013-05-12 23:58:00,74.0,71.8,30.00,North,355,0.0,0.0,93,0.00,,BKN035,0.01,VWS V14.01,2013-05-13 03:58:00,
2013-05-12 23:59:00,74.0,71.8,29.99,North,355,0.0,0.0,93,0.00,,BKN035,0.01,VWS V14.01,2013-05-13 03:59:00,